Sigfox identifier Datetime Temperature Humidity SNR
0039E024 2019-04-12 12:32:04 21 17 21.5
0039E024 2019-04-12 12:00:18 21 17 21.5
0039E024 2019-04-12 11:28:32 21.1 17 21.6
0039E024 2019-04-12 10:56:47 21.1 17 21.5
0039E024 2019-04-12 10:25:01 21 17 21.4
0039E024 2019-04-12 09:53:14 21 17 21.4
0039E024 2019-04-12 09:21:30 21 17 21.4
0039E024 2019-04-12 09:20:16 20.8 17 21.5
0039E024 2019-04-12 08:48:30 20.7 17 20.1
0039E024 2019-04-12 08:16:45 20.7 17 20
0039E024 2019-04-12 07:44:59 20.7 17 19.9
0039E024 2019-04-12 07:13:13 20.8 18 19.8
0039E024 2019-04-12 06:41:26 20.8 18 19.9
0039E024 2019-04-12 06:09:42 20.8 18 19.9
0039E024 2019-04-12 05:37:57 20.8 18 19.8
0039E024 2019-04-12 05:06:12 20.8 18 19.9
0039E024 2019-04-12 04:34:27 20.8 18 20.1
0039E024 2019-04-12 04:02:42 20.8 18 19.9
0039E024 2019-04-12 03:30:57 20.9 18 20
0039E024 2019-04-12 02:59:10 20.9 18 20
0039E024 2019-04-12 02:27:24 20.9 18 19.9
0039E024 2019-04-12 01:55:39 21 18 19.9
0039E024 2019-04-12 01:23:54 21 18 19.9
0039E024 2019-04-12 00:52:10 21.1 18 19.9
0039E024 2019-04-12 00:20:25 21.1 18 20.1
0039E024 2019-04-11 23:48:40 21.2 18 18.3
0039E024 2019-04-11 23:16:55 21.3 18 18.2
0039E024 2019-04-11 22:45:09 21.3 18 18.2
0039E024 2019-04-11 22:13:24 21.3 18 18.2
0039E024 2019-04-11 21:41:40 21.3 18 18.2
0039E024 2019-04-11 21:09:54 21.3 17 18.3
0039E024 2019-04-11 20:38:09 21.3 17 18
0039E024 2019-04-11 20:06:24 21.3 17 18
0039E024 2019-04-11 19:34:39 21.2 17 18
0039E024 2019-04-11 19:02:55 21.1 16 18.1
0039E024 2019-04-11 18:31:12 21.1 16 18.1
0039E024 2019-04-11 17:59:27 21.1 16 18.2
0039E024 2019-04-11 17:27:40 21.2 16 17.9
0039E024 2019-04-11 16:55:54 21.2 17 18
0039E024 2019-04-11 16:24:08 21.3 18 18.2
0039E024 2019-04-11 15:52:22 21.2 18 17.9
0039E024 2019-04-11 15:20:35 21.1 18 17.6
0039E024 2019-04-11 14:48:49 21 17 17.7
0039E024 2019-04-11 14:17:05 21 17 17.7
0039E024 2019-04-11 13:45:20 20.9 17 17.8
0039E024 2019-04-11 13:13:35 20.8 17 18.1
0039E024 2019-04-11 12:41:49 20.8 17 18.1
0039E024 2019-04-11 12:10:06 20.8 17 18.2
0039E024 2019-04-11 11:38:20 20.9 18 18.5
0039E024 2019-04-11 11:06:36 20.8 18 18.4
0039E024 2019-04-11 10:34:50 20.8 18 18.3
0039E024 2019-04-11 10:03:06 20.7 17 18.4
0039E024 2019-04-11 09:31:21 20.7 17 18.8
0039E024 2019-04-11 08:59:36 20.7 17 18.7
0039E024 2019-04-11 08:27:51 20.6 17 18.9
0039E024 2019-04-11 07:56:06 20.6 18 19.1
0039E024 2019-04-11 07:24:21 20.9 18 19.4
0039E024 2019-04-11 07:23:07 20.6 18 19.5
0039E024 2019-04-11 06:51:22 20.6 18 19.5
0039E024 2019-04-11 06:19:37 20.6 18 19.7
0039E024 2019-04-11 05:47:51 20.7 18 19.8
0039E024 2019-04-11 05:16:07 20.7 18 19.9
0039E024 2019-04-11 04:44:21 20.7 18 20.3
0039E024 2019-04-11 04:12:37 20.7 18 20.1
0039E024 2019-04-11 03:40:51 20.7 18 20.3
0039E024 2019-04-11 03:09:06 20.7 18 20.2
0039E024 2019-04-11 02:37:21 20.7 18 20.3
0039E024 2019-04-11 02:05:36 20.8 18 20.3
0039E024 2019-04-11 01:33:51 20.8 18 20.4
0039E024 2019-04-11 01:02:05 20.8 18 20.5
0039E024 2019-04-11 00:30:20 20.9 18 20.3
0039E024 2019-04-10 23:58:35 20.9 18 20.2
0039E024 2019-04-10 23:26:49 20.9 18 20.1
0039E024 2019-04-10 22:55:04 20.9 18 20
0039E024 2019-04-10 22:23:16 20.9 18 20.1
0039E024 2019-04-10 21:51:30 20.9 18 20
0039E024 2019-04-10 21:19:45 20.8 18 19.9
0039E024 2019-04-10 20:47:59 20.8 18 19.8
0039E024 2019-04-10 20:16:13 20.8 18 19.9
0039E024 2019-04-10 19:44:28 20.8 18 19.7
0039E024 2019-04-10 19:12:42 20.7 18 19.7
0039E024 2019-04-10 18:40:57 20.7 18 21
0039E024 2019-04-10 18:09:11 20.7 18 21
0039E024 2019-04-10 17:37:28 20.7 18 21.1
0039E024 2019-04-10 17:05:42 20.7 18 21.1
0039E024 2019-04-10 16:33:58 20.7 19 21
0039E024 2019-04-10 16:02:12 20.7 19 20.9
0039E024 2019-04-10 15:30:27 20.8 19 20.7
0039E024 2019-04-10 14:58:44 20.8 19 20.7
0039E024 2019-04-10 14:27:00 20.8 19 20.3
0039E024 2019-04-10 13:55:15 20.8 20 20.5
0039E024 2019-04-10 13:23:31 20.9 20 20.4
0039E024 2019-04-10 12:51:47 20.8 20 20.5
0039E024 2019-04-10 12:20:02 20.8 20 20.3
0039E024 2019-04-10 11:48:18 20.8 20 20.4
0039E024 2019-04-10 11:16:35 20.6 20 20.5
0039E024 2019-04-10 10:44:49 20.7 21 20.6
0039E024 2019-04-10 10:13:05 20.6 21 20.6
0039E024 2019-04-10 09:41:19 20.6 21 20.6
0039E024 2019-04-10 09:09:33 20.6 22 20.4
0039E024 2019-04-10 08:37:47 20.5 22 20.4
0039E024 2019-04-10 08:06:00 20.5 22 20.5
0039E024 2019-04-10 07:34:15 20.5 23 20.5
0039E024 2019-04-10 07:02:29 20.5 23 20.5
0039E024 2019-04-10 06:30:44 20.5 23 20.5
0039E024 2019-04-10 05:58:59 20.5 23 20.4
0039E024 2019-04-10 05:27:14 20.5 23 20.4
0039E024 2019-04-10 04:54:56 20.5 23 20.4
0039E024 2019-04-10 04:23:10 20.5 23 20.2
0039E024 2019-04-10 03:51:24 20.5 24 20.2
0039E024 2019-04-10 03:19:39 20.5 24 20.2
0039E024 2019-04-10 02:47:54 20.6 24 20.3
0039E024 2019-04-10 02:16:09 20.6 25 20.5
0039E024 2019-04-10 01:44:24 20.6 25 20.7
0039E024 2019-04-10 01:12:37 20.5 25 20.6
0039E024 2019-04-10 00:40:51 20.5 25 20.5
0039E024 2019-04-10 00:09:06 20.6 26 20.4
0039E024 2019-04-09 23:37:20 20.6 26 20.3
0039E024 2019-04-09 23:05:34 20.6 26 20.2
0039E024 2019-04-09 22:33:49 20.6 26 20.2
0039E024 2019-04-09 22:02:04 20.6 27 21.5
0039E024 2019-04-09 21:30:19 20.6 27 21.7
0039E024 2019-04-09 20:58:33 20.6 27 22.7
0039E024 2019-04-09 20:26:48 20.6 27 22.9
0039E024 2019-04-09 19:55:01 20.6 27 22.8
0039E024 2019-04-09 19:23:15 20.6 27 22.9
0039E024 2019-04-09 18:51:31 20.6 27 23.1
0039E024 2019-04-09 18:19:45 20.7 27 23.1
0039E024 2019-04-09 17:48:00 20.7 27 23.2
0039E024 2019-04-09 17:16:14 20.7 27 23.3
0039E024 2019-04-09 16:44:28 20.8 27 22.5
0039E024 2019-04-09 16:12:41 20.8 27 22.5
0039E024 2019-04-09 15:40:55 20.8 27 22.6
0039E024 2019-04-09 15:09:10 20.8 26 22.8
0039E024 2019-04-09 14:37:23 20.8 26 22.9
0039E024 2019-04-09 14:05:40 20.8 26 23.1
0039E024 2019-04-09 13:33:52 20.8 26 23.1
0039E024 2019-04-09 13:02:06 20.8 26 23.1
0039E024 2019-04-09 12:30:19 20.8 26 23.1
0039E024 2019-04-09 11:58:33 20.9 26 23.3
0039E024 2019-04-09 11:26:47 20.9 26 23.4
0039E024 2019-04-09 10:55:01 20.8 26 23.5
0039E024 2019-04-09 10:23:16 20.7 26 23.7
0039E024 2019-04-09 09:51:30 20.7 26 23.8
0039E024 2019-04-09 09:19:44 20.7 25 23.9
0039E024 2019-04-09 08:47:59 20.7 25 23.4
0039E024 2019-04-09 08:16:13 20.6 25 23.3
0039E024 2019-04-09 07:44:27 20.6 25 22.7
0039E024 2019-04-09 07:12:41 20.6 25 22.6
0039E024 2019-04-09 06:40:55 20.6 25 22.7
0039E024 2019-04-09 06:09:09 20.6 25 22.6
0039E024 2019-04-09 05:37:22 20.6 25 22.6
0039E024 2019-04-09 05:05:35 20.7 25 22.6
0039E024 2019-04-09 04:33:49 20.7 25 22.7
0039E024 2019-04-09 04:02:04 20.6 25 22.5
0039E024 2019-04-09 03:30:19 20.7 25 22.5
0039E024 2019-04-09 02:58:34 20.7 25 22.3
0039E024 2019-04-09 02:26:14 20.7 25 22
0039E024 2019-04-09 02:26:14 20.7 25 22
0039E024 2019-04-09 01:54:27 20.7 25 22.8
0039E024 2019-04-09 01:22:41 20.7 25 23
0039E024 2019-04-09 00:50:56 20.7 25 22.9
0039E024 2019-04-09 00:19:11 20.7 25 23
0039E024 2019-04-08 23:47:25 20.7 25 22.8
0039E024 2019-04-08 23:15:40 20.8 25 22.7
0039E024 2019-04-08 22:43:53 20.8 26 22.7
0039E024 2019-04-08 22:12:07 20.8 26 22.6
0039E024 2019-04-08 21:40:20 20.8 26 23.3
0039E024 2019-04-08 21:08:34 20.8 26 23.1
0039E024 2019-04-08 20:36:48 20.8 26 23
0039E024 2019-04-08 20:05:04 20.8 26 22.9
0039E024 2019-04-08 19:33:18 20.8 26 22.9
0039E024 2019-04-08 19:01:31 20.8 26 22.8
0039E024 2019-04-08 18:29:45 20.8 26 22.8
0039E024 2019-04-08 17:57:58 20.8 26 22.7
0039E024 2019-04-08 17:26:13 20.9 26 22.7
0039E024 2019-04-08 16:54:28 20.9 26 22.6
0039E024 2019-04-08 16:22:41 20.9 26 22.5
0039E024 2019-04-08 15:50:56 20.9 26 22.7
0039E024 2019-04-08 15:19:10 20.9 26 22.7
0039E024 2019-04-08 14:47:24 20.9 26 22.7
0039E024 2019-04-08 14:15:37 20.9 26 22.8
0039E024 2019-04-08 13:43:51 21 26 22.9
0039E024 2019-04-08 13:12:06 20.9 26 22.9
0039E024 2019-04-08 12:40:20 20.8 26 22.2
0039E024 2019-04-08 12:08:33 20.7 25 21.8
0039E024 2019-04-08 11:36:47 20.6 25 21.9
0039E024 2019-04-08 11:05:02 20.6 25 21.8
0039E024 2019-04-08 10:33:16 20.5 25 21.9
0039E024 2019-04-08 10:01:30 20.5 25 22
0039E024 2019-04-08 09:29:44 20.4 24 22.1
0039E024 2019-04-08 08:57:57 20.3 24 22.2
0039E024 2019-04-08 08:26:10 20.3 24 21.2
0039E024 2019-04-08 07:54:25 20.2 23 21.3
0039E024 2019-04-08 07:22:38 20.2 23 21.4
0039E024 2019-04-08 06:50:52 20.2 23 21.4
0039E024 2019-04-08 06:19:08 20.2 23 21.3
0039E024 2019-04-08 05:47:21 20.3 23 21.2
0039E024 2019-04-08 05:15:36 20.3 23 21.4
0039E024 2019-04-08 04:43:51 20.3 23 21.5
0039E024 2019-04-08 04:12:05 20.4 23 21.5
0039E024 2019-04-08 03:40:19 20.4 23 21.5
0039E024 2019-04-08 03:08:33 20.4 23 21.5
0039E024 2019-04-08 02:36:49 20.4 23 21.1
0039E024 2019-04-08 02:05:03 20.4 23 21.1
0039E024 2019-04-08 01:33:18 20.5 23 21.3
0039E024 2019-04-08 01:01:32 20.5 23 21.4
0039E024 2019-04-08 00:29:46 20.7 22 21.4
0039E024 2019-04-08 00:28:33 20.5 23 21.5
0039E024 2019-04-07 23:56:47 20.5 23 21.5
0039E024 2019-04-07 23:25:02 20.5 23 21.5
0039E024 2019-04-07 22:53:18 20.6 22 21.5
0039E024 2019-04-07 22:21:34 20.6 22 21.5
0039E024 2019-04-07 21:49:49 20.7 22 21.5
0039E024 2019-04-07 21:18:03 20.8 22 21.4
0039E024 2019-04-07 20:46:18 20.8 22 21.1
0039E024 2019-04-07 20:14:34 20.8 22 21.1
0039E024 2019-04-07 19:42:49 20.8 22 21
0039E024 2019-04-07 19:11:05 20.9 22 20.9
0039E024 2019-04-07 18:39:19 20.9 22 21
0039E024 2019-04-07 18:07:35 20.9 22 20.8
0039E024 2019-04-07 17:35:51 20.8 22 21.1
0039E024 2019-04-07 17:04:07 20.8 22 21.1
0039E024 2019-04-07 16:32:23 20.8 22 21
0039E024 2019-04-07 16:00:40 20.7 22 20.9
0039E024 2019-04-07 15:28:56 20.6 22 20.9
0039E024 2019-04-07 14:57:12 20.5 21 20.9
0039E024 2019-04-07 14:25:28 20.4 21 20.8
0039E024 2019-04-07 13:53:43 20.4 21 20.9
0039E024 2019-04-07 13:21:58 20.4 21 21.1
0039E024 2019-04-07 12:50:16 20.4 21 21.1
0039E024 2019-04-07 12:18:31 20.4 21 21.1
0039E024 2019-04-07 11:46:46 20.3 21 21.1
0039E024 2019-04-07 11:15:02 20.3 21 21.1
0039E024 2019-04-07 10:43:18 20.4 21 20.9
0039E024 2019-04-07 10:11:33 20.3 21 21
0039E024 2019-04-07 09:39:48 20.3 21 21
0039E024 2019-04-07 09:08:03 20.3 21 20.9
0039E024 2019-04-07 08:36:17 20.4 21 20.8
0039E024 2019-04-07 08:04:35 20.4 21 20.7
0039E024 2019-04-07 07:32:45 20.4 21 20.8
0039E024 2019-04-07 07:01:00 20.4 21 20.8
0039E024 2019-04-07 06:29:17 20.5 21 21
0039E024 2019-04-07 05:57:29 20.5 21 20.8
0039E024 2019-04-07 05:25:43 20.5 21 20.9
0039E024 2019-04-07 04:53:57 20.5 21 20.7
0039E024 2019-04-07 04:22:11 20.6 21 20.8
0039E024 2019-04-07 03:50:25 20.6 21 20.7
0039E024 2019-04-07 03:18:39 20.7 21 20.7
0039E024 2019-04-07 02:46:53 20.7 21 20.8
0039E024 2019-04-07 02:15:06 20.8 21 20.7
0039E024 2019-04-07 01:43:19 20.8 21 20.7
0039E024 2019-04-07 01:11:34 20.9 21 21.8
0039E024 2019-04-07 00:39:48 20.9 21 21.7
0039E024 2019-04-07 00:08:02 20.9 21 21.6
0039E024 2019-04-06 23:36:16 21 21 21.4
0039E024 2019-04-06 23:04:28 21 21 21.5
0039E024 2019-04-06 22:32:41 21.1 21 21.3
0039E024 2019-04-06 22:00:20 21.1 21 21.4
0039E024 2019-04-06 21:28:34 21.1 21 21.3
0039E024 2019-04-06 20:56:46 21.2 21 21.3
0039E024 2019-04-06 20:24:59 21.2 21 21.2
0039E024 2019-04-06 19:53:15 21.2 21 21.2
0039E024 2019-04-06 19:21:28 21.2 21 21.2
0039E024 2019-04-06 18:49:43 21.2 21 21.2
0039E024 2019-04-06 18:17:57 21.2 21 21.1
0039E024 2019-04-06 17:46:11 21.1 21 21
0039E024 2019-04-06 17:14:26 21.1 21 21
0039E024 2019-04-06 16:42:41 21 21 21.1
0039E024 2019-04-06 16:10:55 20.9 21 21
0039E024 2019-04-06 15:39:09 20.7 21 20.9
0039E024 2019-04-06 15:07:21 20.6 21 20.8
0039E024 2019-04-06 14:35:35 20.5 21 20.7
0039E024 2019-04-06 14:03:49 20.5 21 20.7
0039E024 2019-04-06 13:32:04 20.5 21 20.7
0039E024 2019-04-06 13:00:17 20.5 21 20.7
0039E024 2019-04-06 12:28:32 20.4 20 18.9
0039E024 2019-04-06 11:56:46 20.5 20 19.1
0039E024 2019-04-06 11:25:00 20.5 20 18.9
0039E024 2019-04-06 10:53:14 20.5 20 18.9
0039E024 2019-04-06 10:21:29 20.5 20 18.7
0039E024 2019-04-06 09:49:45 20.5 20 19
0039E024 2019-04-06 09:17:59 20.4 20 19.3
0039E024 2019-04-06 08:46:14 20.4 20 19.3
0039E024 2019-04-06 08:14:29 20.5 20 19.2
0039E024 2019-04-06 07:42:43 20.5 20 19.3
0039E024 2019-04-06 07:10:58 20.6 20 19.4
0039E024 2019-04-06 06:39:13 20.6 20 19.6
0039E024 2019-04-06 06:07:26 20.6 20 19.5
0039E024 2019-04-06 05:35:41 20.7 20 19.6
0039E024 2019-04-06 05:03:55 20.7 20 19.6
0039E024 2019-04-06 04:32:09 20.8 20 19.6
0039E024 2019-04-06 04:00:24 20.8 20 19.5
0039E024 2019-04-06 03:28:39 20.8 20 19.4
0039E024 2019-04-06 02:56:55 20.9 20 19.5
0039E024 2019-04-06 02:25:09 21 20 19.6
0039E024 2019-04-06 01:53:24 21 19 19.6
0039E024 2019-04-06 01:21:37 21.1 19 19.7
0039E024 2019-04-06 00:49:51 21.2 19 19.4
0039E024 2019-04-06 00:18:05 21.3 19 19.3
0039E024 2019-04-05 23:46:19 21.3 19 19.5
0039E024 2019-04-05 23:14:35 21.4 19 19.7
0039E024 2019-04-05 22:42:48 21.5 19 19.8
0039E024 2019-04-05 22:11:05 21.6 19 19.9
0039E024 2019-04-05 21:39:18 21.7 19 19.9
0039E024 2019-04-05 21:07:33 21.8 19 20.2
0039E024 2019-04-05 20:35:48 21.8 19 20.2
0039E024 2019-04-05 20:04:03 21.8 18 20.1
0039E024 2019-04-05 19:31:45 21.9 19 21.5
0039E024 2019-04-05 19:00:00 21.9 19 21.4
0039E024 2019-04-05 18:28:14 21.7 18 21.4
0039E024 2019-04-05 17:56:29 21.7 19 21.4
0039E024 2019-04-05 17:24:44 21.6 19 21.5
0039E024 2019-04-05 16:52:58 21.7 19 21.4
0039E024 2019-04-05 16:21:12 21.7 20 21.5
0039E024 2019-04-05 15:49:27 21.6 21 21.5
0039E024 2019-04-05 15:17:41 21.5 21 21.6
0039E024 2019-04-05 14:45:55 21.5 21 21.7
0039E024 2019-04-05 14:14:11 21.3 21 21.8
0039E024 2019-04-05 13:42:25 21.2 21 21.8
0039E024 2019-04-05 13:10:40 21.2 21 21.9
0039E024 2019-04-05 12:38:56 21.3 22 22.8
0039E024 2019-04-05 12:07:10 21.2 22 23
0039E024 2019-04-05 11:35:25 21.3 22 23
0039E024 2019-04-05 11:03:41 21.2 22 23
0039E024 2019-04-05 10:31:57 21.1 21 22.9
0039E024 2019-04-05 10:00:11 21 21 22.9
0039E024 2019-04-05 09:28:27 21 20 23
0039E024 2019-04-05 08:56:42 20.9 19 23.1
0039E024 2019-04-05 08:24:58 20.9 19 23
0039E024 2019-04-05 07:53:14 20.9 19 23
0039E024 2019-04-05 07:21:30 21 19 22.9
0039E024 2019-04-05 06:49:45 21 19 22.9
0039E024 2019-04-05 06:18:00 21 19 22.1
0039E024 2019-04-05 05:46:15 21 19 22.2
0039E024 2019-04-05 05:14:29 21 19 22.2
0039E024 2019-04-05 04:42:44 21 19 22.2
0039E024 2019-04-05 04:10:59 21.1 19 22.2
0039E024 2019-04-05 03:39:13 21.1 19 23.1
0039E024 2019-04-05 03:07:27 21.1 19 23.1
0039E024 2019-04-05 02:35:42 21.2 19 23
0039E024 2019-04-05 02:03:57 21.2 19 23
0039E024 2019-04-05 01:32:13 21.2 19 22.9
0039E024 2019-04-05 01:00:27 21.3 19 22.8
0039E024 2019-04-05 00:28:42 21.3 19 22.8
0039E024 2019-04-04 23:56:57 21.3 19 22.8
0039E024 2019-04-04 23:25:11 21.4 19 21.8
0039E024 2019-04-04 22:53:27 21.4 18 21.8
0039E024 2019-04-04 22:21:42 21.4 18 21.9
0039E024 2019-04-04 21:49:58 21.4 18 21.9
0039E024 2019-04-04 21:18:13 21.4 18 22
0039E024 2019-04-04 20:46:28 21.4 18 22
0039E024 2019-04-04 20:14:43 21.5 17 22
0039E024 2019-04-04 19:42:59 21.4 17 21.9
0039E024 2019-04-04 19:11:15 21.4 17 21.9
0039E024 2019-04-04 18:39:30 21.4 17 21.8
0039E024 2019-04-04 18:07:45 21.5 17 21.9
0039E024 2019-04-04 17:36:01 21.8 18 21.9
0039E024 2019-04-04 17:34:47 21.5 18 21.8
0039E024 2019-04-04 17:03:04 21.6 18 21.7
0039E024 2019-04-04 16:31:20 21.5 19 21.8
0039E024 2019-04-04 15:59:35 21.4 19 21.7
0039E024 2019-04-04 15:27:50 21.4 19 21.7
0039E024 2019-04-04 14:56:05 21.3 20 20.5
0039E024 2019-04-04 14:24:19 21.2 20 20.7
0039E024 2019-04-04 13:52:33 21.2 20 20.9
0039E024 2019-04-04 13:20:48 21.1 20 21
0039E024 2019-04-04 12:49:04 21.1 20 21.1
0039E024 2019-04-04 12:17:19 21 20 21.2
0039E024 2019-04-04 11:45:34 21 20 21.1
0039E024 2019-04-04 11:13:50 21 20 21.2
0039E024 2019-04-04 10:42:04 21 20 21.3
0039E024 2019-04-04 10:10:19 21 20 21.3
0039E024 2019-04-04 09:38:32 20.9 20 21.2
0039E024 2019-04-04 09:06:48 20.9 20 21.1
0039E024 2019-04-04 08:35:03 20.9 19 21.3
0039E024 2019-04-04 08:03:18 20.8 19 21.3
0039E024 2019-04-04 07:31:33 20.9 20 21.2
0039E024 2019-04-04 06:59:47 20.9 20 22.2
0039E024 2019-04-04 06:28:02 21 20 22.2
0039E024 2019-04-04 05:56:16 21 20 22.2
0039E024 2019-04-04 05:24:31 21 20 22.2
0039E024 2019-04-04 04:52:47 21 20 22.1
0039E024 2019-04-04 04:21:02 21.1 20 22.1
0039E024 2019-04-04 03:49:16 21.1 20 22.3
0039E024 2019-04-04 03:17:30 21.1 20 22.2
0039E024 2019-04-04 02:45:45 21.2 19 22.3
0039E024 2019-04-04 02:13:58 21.2 19 22.4
0039E024 2019-04-04 01:42:11 21.2 19 23.2
0039E024 2019-04-04 01:10:25 21.3 19 23.1
0039E024 2019-04-04 00:38:38 21.3 19 23.1
0039E024 2019-04-04 00:06:50 21.4 19 23
0039E024 2019-04-03 23:35:03 21.4 19 23.7
0039E024 2019-04-03 23:03:19 21.4 19 23.8
0039E024 2019-04-03 22:31:30 21.5 19 24.4
0039E024 2019-04-03 21:59:44 21.5 19 24.4
0039E024 2019-04-03 21:27:57 21.6 19 24.4
0039E024 2019-04-03 20:56:09 21.6 19 24.4
0039E024 2019-04-03 20:24:22 21.6 18 24.5
0039E024 2019-04-03 19:52:35 21.6 18 24.5
0039E024 2019-04-03 19:20:48 21.6 18 24.5
0039E024 2019-04-03 18:49:00 21.7 18 24.5
0039E024 2019-04-03 18:17:15 21.7 18 24.5
0039E024 2019-04-03 17:45:28 21.8 19 24
0039E024 2019-04-03 17:13:43 21.9 20 24.1
0039E024 2019-04-03 16:41:57 21.9 20 24.2
0039E024 2019-04-03 16:10:12 21.8 20 24.2
0039E024 2019-04-03 15:38:26 21.6 21 24.3
0039E024 2019-04-03 15:06:09 21.5 21 24.3
0039E024 2019-04-03 14:34:23 21.3 21 24.2
0039E024 2019-04-03 14:02:38 21.3 21 24.2
0039E024 2019-04-03 13:30:52 21.2 21 24.2
0039E024 2019-04-03 12:59:07 21.1 20 23.6
0039E024 2019-04-03 12:27:21 21.2 20 23.6
0039E024 2019-04-03 11:55:35 21.2 21 23.6
0039E024 2019-04-03 11:23:49 21.1 21 23.6
0039E024 2019-04-03 10:52:05 21 21 22.9
0039E024 2019-04-03 10:20:20 21.1 21 22.9
0039E024 2019-04-03 09:48:34 21 21 22.1
0039E024 2019-04-03 09:16:49 20.8 19 22.1
0039E024 2019-04-03 08:45:03 20.7 19 22.1
0039E024 2019-04-03 08:13:15 20.7 19 22.1
0039E024 2019-04-03 07:41:29 20.7 20 22
0039E024 2019-04-03 07:09:43 20.8 20 22
0039E024 2019-04-03 06:37:58 20.7 20 21.9
0039E024 2019-04-03 06:06:11 20.8 19 21.7
0039E024 2019-04-03 05:34:26 20.8 19 21.4
0039E024 2019-04-03 05:02:41 20.8 19 21.3
0039E024 2019-04-03 04:30:56 20.8 19 21.1
0039E024 2019-04-03 03:59:11 20.8 19 20.9
0039E024 2019-04-03 03:27:26 20.8 19 20.9
0039E024 2019-04-03 02:55:41 20.9 19 20.6
0039E024 2019-04-03 02:23:56 20.9 19 21.7
0039E024 2019-04-03 01:52:12 20.9 19 21.6
0039E024 2019-04-03 01:20:26 21 19 21.6
0039E024 2019-04-03 00:48:41 21 19 21.5
0039E024 2019-04-03 00:16:54 21.1 19 21.5
0039E024 2019-04-02 23:45:08 21.1 18 21.4
0039E024 2019-04-02 23:13:23 21.1 18 22.4
0039E024 2019-04-02 22:41:37 21.2 18 22.4
0039E024 2019-04-02 22:09:51 21.2 18 22.3
0039E024 2019-04-02 21:38:05 21.2 18 22.2
0039E024 2019-04-02 21:06:19 21.3 18 21.9
0039E024 2019-04-02 20:34:34 21.3 18 21.8
0039E024 2019-04-02 20:02:48 21.3 17 21.7
0039E024 2019-04-02 19:31:02 21.3 17 21.5
0039E024 2019-04-02 18:59:16 21.3 17 21.6
0039E024 2019-04-02 18:27:31 21.4 17 21.5
0039E024 2019-04-02 17:55:47 21.5 17 21.4
0039E024 2019-04-02 17:24:03 21.5 18 21.4
0039E024 2019-04-02 16:52:18 21.6 19 21.4
0039E024 2019-04-02 16:20:32 21.6 20 21.6
0039E024 2019-04-02 15:48:47 21.5 21 21.5
0039E024 2019-04-02 15:17:03 21.3 22 21.6
0039E024 2019-04-02 14:45:19 21.2 22 21.6
0039E024 2019-04-02 14:13:34 21.1 23 21.6
0039E024 2019-04-02 13:41:50 20.9 23 21.7
0039E024 2019-04-02 13:10:07 20.9 23 20.5
0039E024 2019-04-02 12:37:49 20.8 23 20.5
0039E024 2019-04-02 12:06:06 20.8 23 20.6
0039E024 2019-04-02 11:34:22 20.8 22 20.5
0039E024 2019-04-02 11:02:38 20.8 22 20.6
0039E024 2019-04-02 10:30:53 20.8 22 19.2
0039E024 2019-04-02 09:59:08 20.7 21 19.2
0039E024 2019-04-02 09:27:23 20.7 21 19.3
0039E024 2019-04-02 08:55:37 20.7 20 19.5
0039E024 2019-04-02 08:23:53 20.6 20 19.5
0039E024 2019-04-02 07:52:07 20.6 20 19.7
0039E024 2019-04-02 07:20:22 20.6 20 19.9
0039E024 2019-04-02 06:48:37 20.6 20 20
0039E024 2019-04-02 06:16:52 20.6 19 20.1
0039E024 2019-04-02 05:45:07 20.6 19 20.1
0039E024 2019-04-02 05:13:22 20.7 19 21.4
0039E024 2019-04-02 04:41:37 20.7 19 21.5
0039E024 2019-04-02 04:09:52 20.7 19 21.5
0039E024 2019-04-02 03:38:07 20.7 19 22.4
0039E024 2019-04-02 03:06:21 20.7 19 22.5
0039E024 2019-04-02 02:34:35 20.8 18 22.5
0039E024 2019-04-02 02:02:48 20.8 18 22.6
0039E024 2019-04-02 01:31:01 20.8 18 22.5
0039E024 2019-04-02 00:59:15 20.9 18 22.4
0039E024 2019-04-02 00:27:28 20.9 18 22.5
0039E024 2019-04-01 23:55:41 20.9 17 22.6
0039E024 2019-04-01 23:23:53 21 17 22.6
0039E024 2019-04-01 22:52:08 21 17 22.5
0039E024 2019-04-01 22:20:21 21.1 17 22.6
0039E024 2019-04-01 21:48:35 21.1 16 22.5
0039E024 2019-04-01 21:16:49 21.1 16 22.5
0039E024 2019-04-01 20:45:04 21.1 16 22.5
0039E024 2019-04-01 20:13:18 21.1 16 22.5
0039E024 2019-04-01 19:41:33 21.1 16 22.5
0039E024 2019-04-01 19:09:47 21.1 15 22.7
0039E024 2019-04-01 18:38:02 21.1 15 22.7
0039E024 2019-04-01 18:06:17 21.2 16 22.8
0039E024 2019-04-01 17:34:33 21.2 16 22.9
0039E024 2019-04-01 17:02:47 21.2 16 22.8
0039E024 2019-04-01 16:31:01 21.1 16 22.8
0039E024 2019-04-01 15:59:15 21 17 21.9
0039E024 2019-04-01 15:27:30 20.9 17 21.9
0039E024 2019-04-01 14:55:43 20.8 18 22
0039E024 2019-04-01 14:23:59 20.6 18 21
0039E024 2019-04-01 13:52:13 20.6 19 21
0039E024 2019-04-01 13:20:27 20.6 19 21.2
0039E024 2019-04-01 12:48:41 20.6 20 21
0039E024 2019-04-01 12:16:56 20.6 20 20.9
0039E024 2019-04-01 11:45:11 20.6 21 21
0039E024 2019-04-01 11:13:27 20.6 21 21
0039E024 2019-04-01 10:41:41 20.5 21 21.1
0039E024 2019-04-01 10:09:24 20.6 21 22.4
0039E024 2019-04-01 09:37:41 20.5 21 22.3
0039E024 2019-04-01 09:05:56 20.5 22 22.5
0039E024 2019-04-01 08:34:12 20.4 22 22.4
0039E024 2019-04-01 08:02:27 20.4 22 22.5
0039E024 2019-04-01 07:30:42 20.4 22 22.3
0039E024 2019-04-01 06:58:57 20.4 22 22.1
0039E024 2019-04-01 06:27:12 20.4 22 22
0039E024 2019-04-01 05:55:27 20.4 22 21.9
0039E024 2019-04-01 05:23:42 20.4 22 21.9
0039E024 2019-04-01 04:51:58 20.4 22 21.9
0039E024 2019-04-01 04:20:12 20.4 23 22
0039E024 2019-04-01 03:48:28 20.4 23 22
0039E024 2019-04-01 03:16:43 20.4 23 22.1
0039E024 2019-04-01 02:44:59 20.4 23 22.2
0039E024 2019-04-01 02:13:15 20.5 23 22.2
0039E024 2019-04-01 01:41:32 20.5 23 22.1
0039E024 2019-04-01 01:09:48 20.5 23 21.9
0039E024 2019-04-01 00:38:05 20.5 23 22.2
0039E024 2019-04-01 00:06:17 20.5 24 22.3
0039E024 2019-03-31 23:34:32 20.6 24 22.2
0039E024 2019-03-31 23:02:48 20.6 24 22.2
0039E024 2019-03-31 22:31:02 20.7 24 22.2
0039E024 2019-03-31 21:59:17 20.7 25 22.1
0039E024 2019-03-31 21:27:33 20.7 25 22.2
0039E024 2019-03-31 20:55:47 20.7 26 22.1
0039E024 2019-03-31 20:24:03 20.8 26 22.1
0039E024 2019-03-31 19:52:18 20.7 27 22.2
0039E024 2019-03-31 19:20:33 20.7 27 22.3
0039E024 2019-03-31 18:48:47 20.7 27 22.4
0039E024 2019-03-31 18:17:04 20.7 27 22.5
0039E024 2019-03-31 17:45:20 20.6 27 22.7
0039E024 2019-03-31 17:13:35 20.6 27 22.7
0039E024 2019-03-31 16:41:49 20.5 27 22.7
0039E024 2019-03-31 16:10:04 20.5 27 22.9
0039E024 2019-03-31 15:38:18 20.5 27 22.9
0039E024 2019-03-31 15:06:32 20.5 27 22.9
0039E024 2019-03-31 14:34:48 20.5 27 22.7
0039E024 2019-03-31 14:03:03 20.5 27 22.7
0039E024 2019-03-31 13:31:18 20.5 27 22.7
0039E024 2019-03-31 12:59:33 20.5 27 22.7
0039E024 2019-03-31 12:27:49 20.5 27 22.7
0039E024 2019-03-31 11:56:04 20.5 27 22.6
0039E024 2019-03-31 11:24:19 20.5 27 22.5
0039E024 2019-03-31 10:52:35 20.5 27 22.4
0039E024 2019-03-31 10:20:49 20.5 27 22.4
0039E024 2019-03-31 09:49:04 20.5 27 22.4
0039E024 2019-03-31 09:17:20 20.5 27 21.3
0039E024 2019-03-31 08:45:36 20.5 27 21.2
0039E024 2019-03-31 08:13:52 20.5 27 21.1
0039E024 2019-03-31 07:41:35 20.5 28 20.8
0039E024 2019-03-31 07:09:54 20.5 28 20.7
0039E024 2019-03-31 06:38:08 20.5 28 20.4
0039E024 2019-03-31 06:06:24 20.5 28 20.3
0039E024 2019-03-31 05:34:41 20.5 28 20.2
0039E024 2019-03-31 05:02:55 20.6 28 20.1
0039E024 2019-03-31 04:31:11 20.6 28 19.9
0039E024 2019-03-31 02:59:27 20.6 27 20
0039E024 2019-03-31 02:27:42 20.6 27 19.6
0039E024 2019-03-31 01:55:58 20.5 27 19.7
0039E024 2019-03-31 01:24:13 20.6 27 19.7
0039E024 2019-03-31 00:52:28 20.6 27 19.7
0039E024 2019-03-31 00:20:43 20.6 27 19.7
0039E024 2019-03-30 23:48:58 20.6 27 19.7
0039E024 2019-03-30 23:17:12 20.6 27 19.7
0039E024 2019-03-30 22:45:29 20.7 27 19.7
0039E024 2019-03-30 22:13:44 20.7 27 19.7
0039E024 2019-03-30 21:41:59 20.7 27 19.9
0039E024 2019-03-30 21:10:14 20.7 27 19.9
0039E024 2019-03-30 20:38:30 20.8 27 19.8
0039E024 2019-03-30 20:06:46 20.8 27 19.8
0039E024 2019-03-30 19:35:02 20.8 27 19.9
0039E024 2019-03-30 19:03:18 20.8 27 19.9
0039E024 2019-03-30 18:31:35 20.9 27 19.7
0039E024 2019-03-30 17:59:51 20.9 27 19.8
0039E024 2019-03-30 17:28:07 20.9 27 19.8
0039E024 2019-03-30 16:56:22 20.9 27 20.1
0039E024 2019-03-30 16:24:39 20.9 27 20.1
0039E024 2019-03-30 15:52:55 20.9 27 20.1
0039E024 2019-03-30 15:21:11 20.9 27 20.1
0039E024 2019-03-30 14:49:28 20.8 27 19.9
0039E024 2019-03-30 14:17:44 20.8 27 19.8
0039E024 2019-03-30 13:45:59 20.8 27 19.8
0039E024 2019-03-30 13:14:15 20.7 27 19.8
0039E024 2019-03-30 12:42:31 20.8 27 19.4
0039E024 2019-03-30 12:10:47 20.7 27 19.3
0039E024 2019-03-30 11:39:03 20.7 27 19.4
0039E024 2019-03-30 11:07:18 20.7 27 19.3
0039E024 2019-03-30 10:35:35 20.6 27 19.3
0039E024 2019-03-30 10:03:49 20.6 27 19.1
0039E024 2019-03-30 09:32:04 20.6 27 19
0039E024 2019-03-30 09:00:20 20.6 27 19.2
0039E024 2019-03-30 08:28:34 20.6 27 19.2
0039E024 2019-03-30 07:56:50 20.6 27 19.2
0039E024 2019-03-30 07:25:06 20.6 27 19.2
0039E024 2019-03-30 06:53:23 20.6 27 19.1
0039E024 2019-03-30 06:21:36 20.6 27 18.9
0039E024 2019-03-30 05:49:51 20.6 27 19
0039E024 2019-03-30 05:18:06 20.6 27 19.1
0039E024 2019-03-30 04:46:23 20.6 27 19.2
0039E024 2019-03-30 04:14:05 20.7 27 18.6
0039E024 2019-03-30 03:42:20 20.7 27 20.5
0039E024 2019-03-30 03:10:36 20.7 27 20.4
0039E024 2019-03-30 02:38:52 20.7 27 20.3
0039E024 2019-03-30 02:07:07 20.7 28 20.4
0039E024 2019-03-30 01:35:23 20.8 28 20.3
0039E024 2019-03-30 01:03:38 20.8 28 20.1
0039E024 2019-03-30 00:31:54 20.8 28 20.2
0039E024 2019-03-30 00:00:09 20.9 28 20.1
0039E024 2019-03-29 23:28:24 20.9 28 20.3
0039E024 2019-03-29 22:56:38 20.9 28 20.2
0039E024 2019-03-29 22:24:54 20.9 28 20.2
0039E024 2019-03-29 21:53:09 20.9 28 20
0039E024 2019-03-29 21:21:25 21 29 20
0039E024 2019-03-29 20:49:40 20.9 28 19.9
0039E024 2019-03-29 20:17:55 20.9 28 19.8
0039E024 2019-03-29 19:46:11 20.9 28 19.7
0039E024 2019-03-29 19:14:27 20.9 28 19.7
0039E024 2019-03-29 18:42:42 20.9 28 19.8
0039E024 2019-03-29 18:10:59 21 28 20
0039E024 2019-03-29 17:39:14 21 28 20
0039E024 2019-03-29 17:07:29 21 28 20
0039E024 2019-03-29 16:35:44 21.1 28 20
0039E024 2019-03-29 16:04:00 21.1 28 20
0039E024 2019-03-29 15:32:17 21.1 28 20
0039E024 2019-03-29 15:00:35 21.1 28 20
0039E024 2019-03-29 14:28:49 21.1 28 18.2
0039E024 2019-03-29 13:57:05 21.1 28 18.2
0039E024 2019-03-29 13:25:21 21.1 28 20.2
0039E024 2019-03-29 12:53:37 21 27 20.3
0039E024 2019-03-29 12:21:53 21 27 20.4
0039E024 2019-03-29 11:50:09 21 27 20.4
0039E024 2019-03-29 11:18:25 21 27 20.4
0039E024 2019-03-29 10:46:40 21 27 20.6
0039E024 2019-03-29 10:14:55 21 27 20.4
0039E024 2019-03-29 09:43:12 20.9 27 20.5
0039E024 2019-03-29 09:11:28 20.8 26 20.4
0039E024 2019-03-29 08:39:43 20.8 26 21.7
0039E024 2019-03-29 08:07:57 20.8 25 21.9
0039E024 2019-03-29 07:36:13 20.7 25 21.9
0039E024 2019-03-29 07:04:27 20.6 25 21.9
0039E024 2019-03-29 06:32:39 20.6 25 21.9
0039E024 2019-03-29 06:00:53 20.7 25 22.9
0039E024 2019-03-29 05:29:08 20.7 25 22.9
0039E024 2019-03-29 04:57:25 20.7 25 22.8
0039E024 2019-03-29 04:25:41 20.8 25 22.8
0039E024 2019-03-29 03:53:57 20.9 25 22.8
0039E024 2019-03-29 03:22:12 20.9 25 22.8
0039E024 2019-03-29 02:50:27 21 25 22.7
0039E024 2019-03-29 02:18:42 21 25 22.7
0039E024 2019-03-29 01:46:25 21 25 22.7
0039E024 2019-03-29 01:14:40 21.1 25 22.8
0039E024 2019-03-29 00:42:55 21 25 21.8
0039E024 2019-03-29 00:11:10 21 24 21.9
0039E024 2019-03-28 23:39:24 21 25 21.9
0039E024 2019-03-28 23:07:39 21.1 24 21.9
0039E024 2019-03-28 22:35:53 21.1 24 21.9
0039E024 2019-03-28 22:04:08 21.1 24 22
0039E024 2019-03-28 21:32:23 21.1 24 22.2
0039E024 2019-03-28 21:00:37 21.2 24 22.2
0039E024 2019-03-28 20:28:52 21.2 24 22.3
0039E024 2019-03-28 19:57:06 21.1 24 21.5
0039E024 2019-03-28 19:25:20 21.1 24 22.5
0039E024 2019-03-28 18:53:33 21.1 24 22.6
0039E024 2019-03-28 18:21:47 21.1 24 22.8
0039E024 2019-03-28 17:50:01 21.2 24 22.8
0039E024 2019-03-28 17:18:18 21.2 24 21.9
0039E024 2019-03-28 16:46:28 21.2 24 22
0039E024 2019-03-28 16:14:42 21.1 24 22.1
0039E024 2019-03-28 15:42:56 21.1 23 22.2
0039E024 2019-03-28 15:11:11 21.2 23 22.2
0039E024 2019-03-28 14:39:25 21.1 23 22.3
0039E024 2019-03-28 14:07:40 21 23 22.5
0039E024 2019-03-28 13:35:55 21 23 22.6
0039E024 2019-03-28 13:04:10 21 22 22.8
0039E024 2019-03-28 12:32:26 20.9 22 22.8
0039E024 2019-03-28 12:00:43 20.9 22 22.7
0039E024 2019-03-28 11:28:55 20.9 21 22.9
0039E024 2019-03-28 10:57:09 20.9 21 22.8
0039E024 2019-03-28 10:25:24 20.9 21 22.9
0039E024 2019-03-28 09:53:39 20.8 20 23
0039E024 2019-03-28 09:21:54 20.8 20 23.1
0039E024 2019-03-28 08:50:10 20.8 20 23
0039E024 2019-03-28 08:18:25 20.8 20 23
0039E024 2019-03-28 07:46:40 20.7 19 22.9
0039E024 2019-03-28 07:14:55 20.6 19 23
0039E024 2019-03-28 06:43:11 20.7 19 22.8
0039E024 2019-03-28 06:11:26 20.7 19 21.8
0039E024 2019-03-28 05:39:40 20.7 19 21.8
0039E024 2019-03-28 05:07:56 20.7 19 21.7
0039E024 2019-03-28 04:36:11 20.7 19 21.6
0039E024 2019-03-28 04:04:26 20.7 19 21.5
0039E024 2019-03-28 03:32:41 20.7 19 21.5
0039E024 2019-03-28 03:00:54 20.7 19 21.6
0039E024 2019-03-28 02:29:07 20.7 18 21.5
0039E024 2019-03-28 01:57:21 20.7 18 21.4
0039E024 2019-03-28 01:25:35 20.8 18 22.4
0039E024 2019-03-28 00:53:48 20.8 18 23.1
0039E024 2019-03-28 00:22:03 20.8 17 23.8
0039E024 2019-03-27 23:50:17 20.8 17 23.6
0039E024 2019-03-27 23:17:59 20.8 17 23.6
0039E024 2019-03-27 22:46:13 20.9 17 23.6
0039E024 2019-03-27 22:14:27 20.9 16 23.6
0039E024 2019-03-27 21:42:41 20.9 16 23.6
0039E024 2019-03-27 21:10:57 21 16 23.6
0039E024 2019-03-27 20:39:12 21 16 23.6
0039E024 2019-03-27 20:07:26 21 15 23.7
0039E024 2019-03-27 19:35:42 21 15 23.6
0039E024 2019-03-27 19:03:57 21 15 23.7
0039E024 2019-03-27 18:32:12 21.1 15 23.6
0039E024 2019-03-27 18:00:27 21.2 15 23.6
0039E024 2019-03-27 17:28:43 21.2 15 23.7
0039E024 2019-03-27 16:56:59 21.3 16 23.7
0039E024 2019-03-27 16:25:13 21.3 16 23.6
0039E024 2019-03-27 15:53:26 21.3 16 23.6
0039E024 2019-03-27 15:21:41 21.3 16 23.7
0039E024 2019-03-27 14:49:56 21.2 16 23.7
0039E024 2019-03-27 14:18:11 21.1 16 23.6
0039E024 2019-03-27 13:46:26 21 16 23.7
0039E024 2019-03-27 13:14:40 20.9 15 23.6
0039E024 2019-03-27 12:42:54 20.8 15 23.6
0039E024 2019-03-27 12:11:08 20.8 15 23
0039E024 2019-03-27 11:39:23 20.8 15 22.2
0039E024 2019-03-27 11:07:37 20.7 14 22.3
0039E024 2019-03-27 10:35:51 20.7 14 22.5
0039E024 2019-03-27 10:04:05 20.7 14 22.5
0039E024 2019-03-27 09:32:19 20.6 14 22.5
0039E024 2019-03-27 09:00:33 20.6 14 22.5
0039E024 2019-03-27 08:28:47 20.5 14 22.6
0039E024 2019-03-27 07:57:01 20.5 14 22.6
0039E024 2019-03-27 07:25:16 20.5 14 22.5
0039E024 2019-03-27 06:53:31 20.6 14 23.2
0039E024 2019-03-27 06:21:47 20.5 14 23.3
0039E024 2019-03-27 05:50:01 20.5 14 23.3
0039E024 2019-03-27 05:18:17 20.5 14 23.4
0039E024 2019-03-27 04:46:32 20.6 14 23.3
0039E024 2019-03-27 04:14:46 20.6 14 23.3
0039E024 2019-03-27 03:43:01 20.6 14 23.4
0039E024 2019-03-27 03:11:15 20.6 14 23.5
0039E024 2019-03-27 02:39:29 20.6 14 23.4
0039E024 2019-03-27 02:07:44 20.7 14 23.5
0039E024 2019-03-27 01:35:58 20.7 14 23.5
0039E024 2019-03-27 01:04:12 20.8 13 23.5
0039E024 2019-03-27 00:32:26 20.8 13 23.5
0039E024 2019-03-27 00:00:40 20.8 13 23.5
0039E024 2019-03-26 23:28:55 20.8 13 22.9
0039E024 2019-03-26 22:57:09 20.9 13 22.9
0039E024 2019-03-26 22:25:24 20.9 13 22.7
0039E024 2019-03-26 21:53:38 21 13 22.7
0039E024 2019-03-26 21:21:54 21 13 22.6
0039E024 2019-03-26 20:49:34 21.1 13 22.8
0039E024 2019-03-26 20:17:46 21.1 13 22.8
0039E024 2019-03-26 19:46:00 21.1 13 22.9
0039E024 2019-03-26 19:14:14 21.1 12 22.9
0039E024 2019-03-26 18:42:28 21.1 12 23.1
0039E024 2019-03-26 18:10:44 21.2 13 23.1
0039E024 2019-03-26 17:38:57 21.3 13 23
0039E024 2019-03-26 17:07:11 21.3 13 23.1
0039E024 2019-03-26 16:35:26 21.3 13 23.1
0039E024 2019-03-26 16:03:41 21.3 14 23.2
0039E024 2019-03-26 15:31:56 21.3 14 23.3
0039E024 2019-03-26 15:00:10 21.2 14 23.3
0039E024 2019-03-26 14:28:26 21 14 23.4
0039E024 2019-03-26 13:56:41 20.9 14 23.5
0039E024 2019-03-26 13:24:56 20.8 15 24.1
0039E024 2019-03-26 12:53:12 20.7 15 24.2
0039E024 2019-03-26 12:21:26 20.6 15 24.2
0039E024 2019-03-26 11:49:39 20.6 16 24.3
0039E024 2019-03-26 11:17:53 20.5 16 24.3
0039E024 2019-03-26 10:46:08 20.5 16 24.2
0039E024 2019-03-26 10:14:23 20.5 17 24.2
0039E024 2019-03-26 09:42:37 20.5 18 24.3
0039E024 2019-03-26 09:10:53 20.6 18 24.4
0039E024 2019-03-26 08:39:09 20.6 19 24.5
0039E024 2019-03-26 08:07:25 20.5 19 24.4
0039E024 2019-03-26 07:35:40 20.5 19 24.3
0039E024 2019-03-26 07:03:55 20.5 19 24.3
0039E024 2019-03-26 06:32:10 20.5 19 24.2
0039E024 2019-03-26 06:00:24 20.5 20 24.7
0039E024 2019-03-26 05:28:38 20.5 20 24.6
0039E024 2019-03-26 04:56:52 20.5 20 24.1
0039E024 2019-03-26 04:25:05 20.5 20 24.1
0039E024 2019-03-26 03:53:19 20.5 20 24
0039E024 2019-03-26 03:21:31 20.5 20 24.1
0039E024 2019-03-26 02:49:43 20.5 20 24
0039E024 2019-03-26 02:17:57 20.5 20 23.9
0039E024 2019-03-26 01:46:11 20.5 20 23.8
0039E024 2019-03-26 01:14:24 20.6 20 23.7
0039E024 2019-03-26 00:42:37 20.6 20 24.3
0039E024 2019-03-26 00:10:51 20.6 20 23.6
0039E024 2019-03-25 23:39:05 20.6 20 23.5
0039E024 2019-03-25 23:07:20 20.6 20 23.5
0039E024 2019-03-25 22:35:35 20.7 20 23.5
0039E024 2019-03-25 22:03:49 20.7 20 23.5
0039E024 2019-03-25 21:32:05 20.7 20 23.5
0039E024 2019-03-25 21:00:18 20.8 20 23.4
0039E024 2019-03-25 20:28:32 20.8 19 23.4
0039E024 2019-03-25 19:56:45 20.8 19 23.4
0039E024 2019-03-25 19:24:59 20.8 19 23.3
0039E024 2019-03-25 18:53:11 20.8 19 23.4
0039E024 2019-03-25 18:20:52 20.9 19 23.4
0039E024 2019-03-25 17:49:05 20.9 20 23.5
0039E024 2019-03-25 17:17:19 21 22 22.9
0039E024 2019-03-25 16:45:31 21 22 22.9
0039E024 2019-03-25 16:13:44 21 23 23
0039E024 2019-03-25 15:41:58 21 23 23
0039E024 2019-03-25 15:10:10 21 23 23
0039E024 2019-03-25 14:38:23 21 23 22.9
0039E024 2019-03-25 14:06:36 21 24 23
0039E024 2019-03-25 13:34:49 21 24 23
0039E024 2019-03-25 13:03:02 20.8 23 23.2
0039E024 2019-03-25 12:31:14 20.7 23 23.3
0039E024 2019-03-25 11:59:28 20.7 23 22.7
0039E024 2019-03-25 11:27:40 20.7 24 22.8
0039E024 2019-03-25 10:55:54 20.7 24 22.8
0039E024 2019-03-25 10:24:07 20.5 24 22.8
0039E024 2019-03-25 09:52:21 20.4 23 22.8
0039E024 2019-03-25 09:20:34 20.2 23 22.9
0039E024 2019-03-25 08:48:46 20.2 23 22.8
0039E024 2019-03-25 08:16:59 20.1 23 22.9
0039E024 2019-03-25 07:45:11 20.1 23 22.8
0039E024 2019-03-25 07:13:23 20.1 23 22.8
0039E024 2019-03-25 06:41:34 20.1 23 22.8
0039E024 2019-03-25 06:09:46 20.2 23 22.8
0039E024 2019-03-25 05:37:59 20.2 23 23.5
0039E024 2019-03-25 05:06:12 20.2 23 23.5
0039E024 2019-03-25 04:34:26 20.2 23 23.4
0039E024 2019-03-25 04:02:38 20.2 23 23.1
0039E024 2019-03-25 03:30:51 20.3 23 23.1
0039E024 2019-03-25 02:59:04 20.2 23 23.1
0039E024 2019-03-25 02:27:17 20.3 23 23.1
0039E024 2019-03-25 01:55:30 20.3 23 23
0039E024 2019-03-25 01:23:42 20.3 23 23
0039E024 2019-03-25 00:51:55 20.3 23 22.9
0039E024 2019-03-25 00:20:08 20.4 23 22.9
0039E024 2019-03-24 23:48:20 20.4 23 22.8
0039E024 2019-03-24 23:16:34 20.5 23 22.7
0039E024 2019-03-24 22:44:46 20.5 23 22.6
0039E024 2019-03-24 22:12:57 20.6 23 22.7
0039E024 2019-03-24 21:41:10 20.6 23 22.6
0039E024 2019-03-24 21:09:22 20.7 23 22.7
0039E024 2019-03-24 20:37:35 20.7 23 22.7
0039E024 2019-03-24 20:05:49 20.8 23 22.7
0039E024 2019-03-24 19:34:02 20.8 23 22.8
0039E024 2019-03-24 19:02:16 20.9 23 22.7
0039E024 2019-03-24 18:30:28 20.9 23 22.7
0039E024 2019-03-24 17:58:42 20.9 23 22.8
0039E024 2019-03-24 17:26:54 20.8 23 22.9
0039E024 2019-03-24 16:55:07 20.8 23 22.9
0039E024 2019-03-24 16:23:19 20.8 23 22.2
0039E024 2019-03-24 15:50:58 20.7 23 22.2
0039E024 2019-03-24 15:19:11 20.6 23 22.2
0039E024 2019-03-24 14:47:23 20.4 23 22.2
0039E024 2019-03-24 14:15:34 20.2 23 22.2
0039E024 2019-03-24 13:43:46 20.2 23 22.2
0039E024 2019-03-24 13:12:00 20.2 23 22.2
0039E024 2019-03-24 12:40:13 20.2 23 22.2
0039E024 2019-03-24 12:08:27 20.1 23 22.2
0039E024 2019-03-24 11:36:39 20.1 23 22.1
0039E024 2019-03-24 11:04:52 20.1 23 22
0039E024 2019-03-24 10:33:04 20.1 23 22
0039E024 2019-03-24 10:01:16 20.1 23 21.8
0039E024 2019-03-24 09:29:28 20.1 23 21.8
0039E024 2019-03-24 08:57:41 20.1 23 21.8
0039E024 2019-03-24 08:25:54 20.1 23 21.7
0039E024 2019-03-24 07:54:07 20.1 23 21.8
0039E024 2019-03-24 07:22:19 20.1 23 21.7
0039E024 2019-03-24 06:50:32 20.1 23 21.7
0039E024 2019-03-24 06:18:45 20.1 23 21.7
0039E024 2019-03-24 05:46:57 20.2 23 21.8
0039E024 2019-03-24 05:15:09 20.1 23 21.6
0039E024 2019-03-24 04:43:20 20.1 23 21.7
0039E024 2019-03-24 04:11:34 20.1 23 21.5
0039E024 2019-03-24 03:39:46 20.2 23 21.3
0039E024 2019-03-24 03:07:58 20.1 23 21
0039E024 2019-03-24 02:36:10 20.2 23 21.1
0039E024 2019-03-24 02:04:23 20.1 23 21.2
0039E024 2019-03-24 01:32:37 20.2 23 21.2
0039E024 2019-03-24 01:00:50 20.2 23 21.2
0039E024 2019-03-24 00:29:04 20.2 23 21
0039E024 2019-03-23 23:57:17 20.2 23 21.1
0039E024 2019-03-23 23:25:30 20.2 23 21
0039E024 2019-03-23 22:53:43 20.2 23 21
0039E024 2019-03-23 22:21:56 20.2 22 21.2
0039E024 2019-03-23 21:50:09 20.2 22 21.2
0039E024 2019-03-23 21:18:23 20.2 22 21.3
0039E024 2019-03-23 20:46:35 20.2 22 21.4
0039E024 2019-03-23 20:14:48 20.2 22 21.5
0039E024 2019-03-23 19:43:01 20.3 22 21.7
0039E024 2019-03-23 19:11:16 20.3 22 21.5
0039E024 2019-03-23 18:39:29 20.3 22 21.6
0039E024 2019-03-23 18:07:42 20.3 22 21.6
0039E024 2019-03-23 17:35:55 20.3 21 21.6
0039E024 2019-03-23 17:04:08 20.3 21 21.7
0039E024 2019-03-23 16:32:21 20.3 21 21.6
0039E024 2019-03-23 16:00:34 20.3 21 21.6
0039E024 2019-03-23 15:28:47 20.3 21 21.4
0039E024 2019-03-23 14:57:00 20.3 21 21.4
0039E024 2019-03-23 14:25:13 20.3 21 21.4
0039E024 2019-03-23 13:53:26 20.3 21 21.4
0039E024 2019-03-23 13:21:06 20.3 21 21.5
0039E024 2019-03-23 12:49:20 20.3 20 21.6
0039E024 2019-03-23 12:17:33 20.3 20 21.5
0039E024 2019-03-23 11:45:48 20.3 20 21.6
0039E024 2019-03-23 11:14:01 20.3 20 21.7
0039E024 2019-03-23 10:42:13 20.3 20 21.8
0039E024 2019-03-23 10:10:26 20.3 20 21.9
0039E024 2019-03-23 09:38:40 20.3 20 21.8
0039E024 2019-03-23 09:06:53 20.3 20 21.9
0039E024 2019-03-23 08:35:06 20.3 20 21.8
0039E024 2019-03-23 08:03:20 20.3 20 21.8
0039E024 2019-03-23 07:31:34 20.4 20 21.6
0039E024 2019-03-23 06:59:48 20.3 20 21.4
0039E024 2019-03-23 06:28:02 20.4 20 21.5
0039E024 2019-03-23 05:56:16 20.4 19 21.5
0039E024 2019-03-23 05:24:32 20.4 19 21.5
0039E024 2019-03-23 04:52:46 20.4 19 21.5
0039E024 2019-03-23 04:21:00 20.4 19 21.4
0039E024 2019-03-23 03:49:14 20.5 19 21.2
0039E024 2019-03-23 03:17:26 20.5 19 21.1
0039E024 2019-03-23 02:45:40 20.5 19 21.1
0039E024 2019-03-23 02:13:54 20.6 19 21.1
0039E024 2019-03-23 01:42:07 20.7 18 21.1
0039E024 2019-03-23 01:10:19 20.7 18 21.1
0039E024 2019-03-23 00:38:32 20.7 18 21
0039E024 2019-03-23 00:06:46 20.8 18 20.9
0039E024 2019-03-22 23:34:59 20.9 18 20.9
0039E024 2019-03-22 23:03:12 21 18 21.1
0039E024 2019-03-22 22:31:27 21 18 21
0039E024 2019-03-22 21:59:39 21.1 17 21
0039E024 2019-03-22 21:27:52 21.2 17 21.1
0039E024 2019-03-22 20:56:05 21.3 17 20.9
0039E024 2019-03-22 20:24:19 21.3 17 20.9
0039E024 2019-03-22 19:52:31 21.3 16 20.7
0039E024 2019-03-22 19:20:47 21.2 16 20.8
0039E024 2019-03-22 18:49:01 21.2 16 20.9
0039E024 2019-03-22 18:17:14 21.2 15 20.9
0039E024 2019-03-22 17:45:28 21.2 15 20.8
0039E024 2019-03-22 17:13:43 21.2 15 20.7
0039E024 2019-03-22 16:41:58 21.1 15 20.7
0039E024 2019-03-22 16:10:12 21.1 15 20.8
0039E024 2019-03-22 15:38:27 21 16 20.7
0039E024 2019-03-22 15:06:41 20.9 16 20.8
0039E024 2019-03-22 14:34:55 20.7 17 21
0039E024 2019-03-22 14:03:09 20.7 17 21.2
0039E024 2019-03-22 13:31:23 20.6 18 21.4
0039E024 2019-03-22 12:59:37 20.6 18 21.5
0039E024 2019-03-22 12:27:51 20.6 18 21.6
0039E024 2019-03-22 11:56:04 20.6 19 21.7
0039E024 2019-03-22 11:24:17 20.6 19 21.7
0039E024 2019-03-22 10:51:55 20.6 20 21.8
0039E024 2019-03-22 10:20:08 20.6 20 21.7
0039E024 2019-03-22 09:48:20 20.6 21 21.7
0039E024 2019-03-22 09:16:33 20.5 21 21.8
0039E024 2019-03-22 08:44:45 20.5 22 21.8
0039E024 2019-03-22 08:12:57 20.5 22 21.8
0039E024 2019-03-22 07:41:10 20.5 23 21.9
0039E024 2019-03-22 07:09:22 20.5 23 21.9
0039E024 2019-03-22 06:37:34 20.5 23 21.8
0039E024 2019-03-22 06:05:48 20.5 24 21.8
0039E024 2019-03-22 05:34:01 20.5 24 21.8
0039E024 2019-03-22 05:02:13 20.5 24 21.8
0039E024 2019-03-22 04:30:26 20.5 25 21.9
0039E024 2019-03-22 03:58:39 20.5 25 21.9
0039E024 2019-03-22 03:26:53 20.6 26 21.9
0039E024 2019-03-22 02:55:07 20.6 26 21.8
0039E024 2019-03-22 02:23:19 20.6 26 21.8
0039E024 2019-03-22 01:51:32 20.6 27 21.9
0039E024 2019-03-22 01:19:43 20.6 27 21.7
0039E024 2019-03-22 00:47:57 20.7 27 21.7
0039E024 2019-03-22 00:16:11 20.7 28 21.7
0039E024 2019-03-21 23:44:24 20.7 28 21.6
0039E024 2019-03-21 23:12:38 20.7 28 21.6
0039E024 2019-03-21 22:40:52 20.7 28 21.6
0039E024 2019-03-21 22:09:04 20.7 28 21.7
0039E024 2019-03-21 21:37:18 20.8 28 21.7
0039E024 2019-03-21 21:05:31 20.8 28 21.6
0039E024 2019-03-21 20:33:45 20.8 28 21.6
0039E024 2019-03-21 20:01:59 20.8 28 21.5
0039E024 2019-03-21 19:30:13 20.9 28 21.6
0039E024 2019-03-21 18:58:25 20.9 28 21.6
0039E024 2019-03-21 18:26:39 21 27 21.4
0039E024 2019-03-21 17:54:51 21.1 27 21.5
0039E024 2019-03-21 17:23:05 21.1 27 22.5
0039E024 2019-03-21 16:51:16 21.2 27 22.5
0039E024 2019-03-21 16:19:29 21.2 27 22.7
0039E024 2019-03-21 15:47:44 21.3 28 22.7
0039E024 2019-03-21 15:15:58 21.3 28 22.7
0039E024 2019-03-21 14:44:13 21.2 27 22.7
0039E024 2019-03-21 14:12:26 21.1 27 22.6
0039E024 2019-03-21 13:40:41 21 26 22.7
0039E024 2019-03-21 13:08:56 20.9 26 22.8
0039E024 2019-03-21 12:37:11 20.8 25 22.7
0039E024 2019-03-21 12:05:25 20.8 25 22.7
0039E024 2019-03-21 11:33:38 20.8 25 22.9
0039E024 2019-03-21 11:01:52 20.7 25 22.9
0039E024 2019-03-21 10:30:06 20.6 25 23
0039E024 2019-03-21 09:58:20 20.6 24 23.1
0039E024 2019-03-21 09:26:34 20.5 24 23.1
0039E024 2019-03-21 08:54:49 20.5 24 23.1
0039E024 2019-03-21 08:22:31 20.4 24 23.2
0039E024 2019-03-21 07:50:46 20.5 24 23.3
0039E024 2019-03-21 07:19:00 20.5 25 23.3
0039E024 2019-03-21 06:47:14 20.5 25 23.2
0039E024 2019-03-21 06:15:28 20.5 25 23.3
0039E024 2019-03-21 05:43:42 20.5 25 23.4
0039E024 2019-03-21 05:11:57 20.5 25 23.3
0039E024 2019-03-21 04:40:12 20.5 25 22.5
0039E024 2019-03-21 04:08:27 20.5 25 22.4
0039E024 2019-03-21 03:36:41 20.5 25 22.3
0039E024 2019-03-21 03:04:56 20.5 25 22.3
0039E024 2019-03-21 02:33:10 20.5 25 22.2
0039E024 2019-03-21 02:01:24 20.5 25 22
0039E024 2019-03-21 01:29:39 20.5 25 22.1
0039E024 2019-03-21 00:57:52 20.5 25 21.9
0039E024 2019-03-21 00:26:06 20.5 26 21.9
0039E024 2019-03-20 23:54:21 20.5 26 21.9
0039E024 2019-03-20 23:22:33 20.5 26 22.7
0039E024 2019-03-20 22:50:47 20.6 26 22.6
0039E024 2019-03-20 22:19:01 20.6 26 22.5
0039E024 2019-03-20 21:47:14 20.6 26 22.5
0039E024 2019-03-20 21:15:27 20.6 26 22.4
0039E024 2019-03-20 21:15:27 20.6 26 22.4
0039E024 2019-03-20 20:43:40 20.6 26 22.3
0039E024 2019-03-20 20:11:54 20.7 26 22.2
0039E024 2019-03-20 19:40:08 20.7 26 22
0039E024 2019-03-20 19:08:23 20.7 26 21.9
0039E024 2019-03-20 18:36:37 20.8 25 21.8
0039E024 2019-03-20 18:04:51 20.8 25 21.8
0039E024 2019-03-20 17:33:05 20.9 25 21.9
0039E024 2019-03-20 17:01:19 20.9 25 22
0039E024 2019-03-20 16:29:33 21 25 21.9
0039E024 2019-03-20 15:57:46 21.1 25 22
0039E024 2019-03-20 15:25:59 21.1 25 22
0039E024 2019-03-20 14:54:12 21 25 22.1
0039E024 2019-03-20 14:22:25 21 24 22.1
0039E024 2019-03-20 13:50:38 21 25 22.1
0039E024 2019-03-20 13:18:51 20.9 25 22.2
0039E024 2019-03-20 12:47:06 20.9 24 22.2
0039E024 2019-03-20 12:15:19 20.9 25 22.3
0039E024 2019-03-20 11:43:32 20.8 25 22.4
0039E024 2019-03-20 11:11:47 20.8 25 22.5
0039E024 2019-03-20 10:40:00 20.7 24 22.6
0039E024 2019-03-20 10:08:13 20.6 24 21.7
0039E024 2019-03-20 09:36:26 20.5 24 21.6
0039E024 2019-03-20 09:04:38 20.4 24 21.7
0039E024 2019-03-20 08:32:53 20.4 25 21.7
0039E024 2019-03-20 08:01:02 20.4 25 21.7
0039E024 2019-03-20 07:29:15 20.4 26 21.8
0039E024 2019-03-20 06:57:27 20.4 26 21.8
0039E024 2019-03-20 06:25:40 20.4 26 22
0039E024 2019-03-20 05:53:21 20.4 26 22.1
0039E024 2019-03-20 05:21:33 20.4 26 22.2
0039E024 2019-03-20 04:49:46 20.4 26 22.1
0039E024 2019-03-20 04:17:58 20.4 26 22.1
0039E024 2019-03-20 03:46:12 20.4 27 21.9
0039E024 2019-03-20 03:14:24 20.5 27 22
0039E024 2019-03-20 02:42:37 20.5 27 22.1
0039E024 2019-03-20 02:10:50 20.5 27 22
0039E024 2019-03-20 01:39:04 20.5 27 22
0039E024 2019-03-20 01:07:17 20.5 27 21.9
0039E024 2019-03-20 00:35:30 20.5 28 21.8
0039E024 2019-03-20 00:03:43 20.5 28 21.7
0039E024 2019-03-19 23:31:56 20.6 28 21.6
0039E024 2019-03-19 23:00:09 20.6 28 21.6
0039E024 2019-03-19 22:28:21 20.6 28 21.5
0039E024 2019-03-19 21:56:34 20.6 28 22.4
0039E024 2019-03-19 21:24:47 20.6 28 22.4
0039E024 2019-03-19 20:53:01 20.7 28 22.5
0039E024 2019-03-19 20:21:14 20.7 28 22.6
0039E024 2019-03-19 19:49:26 20.7 28 22.6
0039E024 2019-03-19 19:17:39 20.8 28 22.6
0039E024 2019-03-19 18:45:52 20.9 29 22.7
0039E024 2019-03-19 18:14:05 21 29 22.7
0039E024 2019-03-19 17:42:18 21.1 29 22.6
0039E024 2019-03-19 17:10:31 21.2 30 22.7
0039E024 2019-03-19 16:38:45 21.2 30 22.6
0039E024 2019-03-19 16:06:58 21.1 30 22.6
0039E024 2019-03-19 15:35:09 21 29 22.7
0039E024 2019-03-19 15:03:23 21.1 29 22.7
0039E024 2019-03-19 14:31:36 21.1 29 22.8
0039E024 2019-03-19 13:59:49 21.1 29 22.6
0039E024 2019-03-19 13:28:00 21 29 22.5
0039E024 2019-03-19 12:56:14 21 29 22.5
0039E024 2019-03-19 12:24:28 21 29 22.6
0039E024 2019-03-19 11:52:41 20.9 29 22.7
0039E024 2019-03-19 11:20:55 20.8 29 22.8
0039E024 2019-03-19 10:49:08 20.7 29 22.8
0039E024 2019-03-19 10:17:23 20.7 28 22.8
0039E024 2019-03-19 09:45:34 20.5 27 22.7
0039E024 2019-03-19 09:13:46 20.5 27 22.7
0039E024 2019-03-19 08:42:00 20.5 27 21.7
0039E024 2019-03-19 08:10:14 20.4 27 21.7
0039E024 2019-03-19 07:38:28 20.4 27 21.6
0039E024 2019-03-19 07:06:43 20.4 27 21.5
0039E024 2019-03-19 06:34:56 20.4 27 21.5
0039E024 2019-03-19 06:03:09 20.4 27 21.5
0039E024 2019-03-19 05:31:21 20.4 27 21.2
0039E024 2019-03-19 04:59:34 20.4 27 21.1
0039E024 2019-03-19 04:27:47 20.4 27 21
0039E024 2019-03-19 03:55:59 20.5 27 20.6
0039E024 2019-03-19 03:23:40 20.4 27 20.6
0039E024 2019-03-19 02:51:54 20.4 27 20.5
0039E024 2019-03-19 02:20:07 20.5 27 20.5
0039E024 2019-03-19 01:48:21 20.5 27 20.5
0039E024 2019-03-19 01:16:34 20.5 27 20.6
0039E024 2019-03-19 00:44:47 20.5 27 20.6
0039E024 2019-03-19 00:13:02 20.5 27 20.9
0039E024 2019-03-18 23:41:16 20.5 27 20.8
0039E024 2019-03-18 23:09:28 20.5 27 20.9
0039E024 2019-03-18 22:37:42 20.5 27 21
0039E024 2019-03-18 22:05:55 20.6 27 21.1
0039E024 2019-03-18 21:34:08 20.5 27 21.3
0039E024 2019-03-18 21:02:23 20.6 27 21.4
0039E024 2019-03-18 20:30:36 20.6 27 21.5
0039E024 2019-03-18 19:58:51 20.6 26 21.7
0039E024 2019-03-18 19:27:05 20.6 26 21.7
0039E024 2019-03-18 18:55:20 20.6 26 21.8
0039E024 2019-03-18 18:23:33 20.7 26 21.9
0039E024 2019-03-18 17:51:46 20.8 26 21.8
0039E024 2019-03-18 17:19:59 20.8 27 21.8
0039E024 2019-03-18 16:48:12 20.9 27 22.1
0039E024 2019-03-18 16:16:25 20.9 27 22.3
0039E024 2019-03-18 15:44:39 20.8 27 22.4
0039E024 2019-03-18 15:12:53 20.8 27 22.6
0039E024 2019-03-18 14:41:10 20.7 27 22.7
0039E024 2019-03-18 14:09:23 20.7 27 22.7
0039E024 2019-03-18 13:37:37 20.7 27 22.7
0039E024 2019-03-18 13:05:53 20.7 27 22.7
0039E024 2019-03-18 12:34:08 20.7 27 22.7
0039E024 2019-03-18 12:02:22 20.6 27 22.8
0039E024 2019-03-18 11:30:38 20.6 27 22.8
0039E024 2019-03-18 10:58:52 20.6 27 22.6
0039E024 2019-03-18 10:27:09 20.6 27 23.4
0039E024 2019-03-18 09:55:25 20.6 27 23.2
0039E024 2019-03-18 09:23:39 20.5 27 23.1
0039E024 2019-03-18 08:51:54 20.5 27 23.1
0039E024 2019-03-18 08:20:10 20.4 27 23.1
0039E024 2019-03-18 07:48:23 20.4 27 23
0039E024 2019-03-18 07:16:37 20.4 27 22.9
0039E024 2019-03-18 06:44:51 20.5 27 22.8
0039E024 2019-03-18 06:13:08 20.4 27 22.8
0039E024 2019-03-18 05:41:20 20.4 27 22.8
0039E024 2019-03-18 05:09:33 20.4 27 22.8
0039E024 2019-03-18 04:37:47 20.4 27 22.8
0039E024 2019-03-18 04:06:01 20.4 27 22.8
0039E024 2019-03-18 03:34:15 20.4 27 22.8
0039E024 2019-03-18 03:02:29 20.4 27 22.8
0039E024 2019-03-18 02:30:43 20.4 27 22.9
0039E024 2019-03-18 01:58:57 20.4 27 22.7
0039E024 2019-03-18 01:27:11 20.4 26 22.7
0039E024 2019-03-18 00:54:53 20.4 26 22.7
0039E024 2019-03-18 00:23:07 20.4 26 22.7
0039E024 2019-03-17 23:51:23 20.4 26 22.7
0039E024 2019-03-17 23:19:37 20.4 26 22.5
0039E024 2019-03-17 22:47:51 20.4 26 22.5
0039E024 2019-03-17 22:16:06 20.4 26 22.6
0039E024 2019-03-17 21:44:21 20.4 26 22.6
0039E024 2019-03-17 21:12:35 20.4 26 22.8
0039E024 2019-03-17 20:40:49 20.4 26 22.8
0039E024 2019-03-17 20:09:02 20.4 26 22.9
0039E024 2019-03-17 19:37:17 20.4 26 22.8
0039E024 2019-03-17 19:05:32 20.4 26 22.9
0039E024 2019-03-17 18:33:46 20.4 26 23
0039E024 2019-03-17 18:01:59 20.4 26 23
0039E024 2019-03-17 17:30:12 20.4 26 23
0039E024 2019-03-17 16:58:26 20.4 26 22.9
0039E024 2019-03-17 16:26:39 20.5 26 22.9
0039E024 2019-03-17 15:54:52 20.5 26 23
0039E024 2019-03-17 15:23:06 20.5 26 23
0039E024 2019-03-17 14:51:20 20.5 26 22.9
0039E024 2019-03-17 14:19:34 20.5 26 22.7
0039E024 2019-03-17 13:47:49 20.5 26 22.6
0039E024 2019-03-17 13:16:03 20.5 26 22.6
0039E024 2019-03-17 12:44:17 20.5 26 22.6
0039E024 2019-03-17 12:12:33 20.5 26 22.6
0039E024 2019-03-17 11:40:47 20.5 26 22.7
0039E024 2019-03-17 11:09:01 20.5 26 22.7
0039E024 2019-03-17 10:37:15 20.5 26 22.7
0039E024 2019-03-17 10:05:29 20.5 26 22.9
0039E024 2019-03-17 09:33:42 20.4 26 23
0039E024 2019-03-17 09:01:56 20.4 26 22.8
0039E024 2019-03-17 08:30:11 20.5 26 22
0039E024 2019-03-17 07:58:26 20.5 26 22
0039E024 2019-03-17 07:26:41 20.4 26 22
0039E024 2019-03-17 06:54:56 20.4 26 22
0039E024 2019-03-17 06:23:10 20.5 26 22
0039E024 2019-03-17 05:51:25 20.5 27 22
0039E024 2019-03-17 05:19:38 20.4 27 22
0039E024 2019-03-17 04:47:53 20.4 27 22.1
0039E024 2019-03-17 04:16:07 20.4 27 22.1
0039E024 2019-03-17 03:44:22 20.5 27 22.1
0039E024 2019-03-17 03:12:36 20.5 27 22
0039E024 2019-03-17 02:40:50 20.5 27 22
0039E024 2019-03-17 02:09:03 20.5 27 21.9
0039E024 2019-03-17 01:37:17 20.5 27 22.1
0039E024 2019-03-17 01:05:30 20.4 27 22.3
0039E024 2019-03-17 00:33:43 20.4 27 22.3
0039E024 2019-03-17 00:01:57 20.4 27 22.4
0039E024 2019-03-16 23:30:11 20.4 27 22.4
0039E024 2019-03-16 22:58:24 20.5 27 22.4
0039E024 2019-03-16 22:26:03 20.4 27 22.5
0039E024 2019-03-16 21:54:17 20.4 26 22.4
0039E024 2019-03-16 21:22:30 20.5 26 22.5
0039E024 2019-03-16 20:50:43 20.5 26 22.5
0039E024 2019-03-16 20:18:57 20.5 26 22.6
0039E024 2019-03-16 19:47:10 20.5 26 22.7
0039E024 2019-03-16 19:15:24 20.5 26 22.7
0039E024 2019-03-16 18:43:37 20.5 26 22.6
0039E024 2019-03-16 18:11:50 20.5 26 22.5
0039E024 2019-03-16 17:40:03 20.5 26 22.4
0039E024 2019-03-16 17:08:16 20.5 26 22.4
0039E024 2019-03-16 16:36:28 20.5 26 22.5
0039E024 2019-03-16 16:04:40 20.5 26 22.4
0039E024 2019-03-16 15:32:56 20.5 26 22.4
0039E024 2019-03-16 15:01:08 20.5 26 22.4
0039E024 2019-03-16 14:29:22 20.5 26 22.5
0039E024 2019-03-16 13:57:36 20.5 26 22.5
0039E024 2019-03-16 13:25:51 20.5 26 22.6
0039E024 2019-03-16 12:54:06 20.5 26 22.5
0039E024 2019-03-16 12:22:21 20.5 26 22.4
0039E024 2019-03-16 11:50:34 20.5 26 22.5
0039E024 2019-03-16 11:18:50 20.5 26 22.4
0039E024 2019-03-16 10:47:04 20.5 26 22.4
0039E024 2019-03-16 10:15:19 20.5 26 22.3
0039E024 2019-03-16 09:43:34 20.5 26 22.4
0039E024 2019-03-16 09:11:49 20.5 26 22.3
0039E024 2019-03-16 08:40:04 20.5 26 22.2
0039E024 2019-03-16 08:08:18 20.5 26 22.1
0039E024 2019-03-16 07:36:33 20.5 26 22.1
0039E024 2019-03-16 07:04:50 20.5 26 22
0039E024 2019-03-16 06:33:05 20.5 26 22
0039E024 2019-03-16 06:01:19 20.5 26 21.9
0039E024 2019-03-16 05:29:33 20.5 26 21.8
0039E024 2019-03-16 04:57:48 20.5 26 21.9
0039E024 2019-03-16 04:26:02 20.5 26 22
0039E024 2019-03-16 03:54:16 20.5 26 21.9
0039E024 2019-03-16 03:22:30 20.5 26 21.9
0039E024 2019-03-16 02:50:45 20.5 26 21.8
0039E024 2019-03-16 02:18:59 20.5 26 21.7
0039E024 2019-03-16 01:47:13 20.5 26 21.6
0039E024 2019-03-16 01:15:26 20.5 26 21.5
0039E024 2019-03-16 00:43:40 20.5 26 21.5
0039E024 2019-03-16 00:11:54 20.5 27 21.3
0039E024 2019-03-15 23:40:08 20.5 27 21.4
0039E024 2019-03-15 23:08:22 20.5 27 21.3
0039E024 2019-03-15 22:36:36 20.6 27 21.3
0039E024 2019-03-15 22:04:51 20.6 27 21.4
0039E024 2019-03-15 21:33:06 20.6 27 21.4
0039E024 2019-03-15 21:01:20 20.6 27 21.4
0039E024 2019-03-15 20:29:35 20.7 27 21.2
0039E024 2019-03-15 19:57:15 20.7 27 21.5
0039E024 2019-03-15 19:25:29 20.7 26 21.5
0039E024 2019-03-15 18:53:45 20.7 26 21.5
0039E024 2019-03-15 18:22:00 20.7 26 21.5
0039E024 2019-03-15 17:50:16 20.7 26 21.5
0039E024 2019-03-15 17:18:32 20.7 26 21.6
0039E024 2019-03-15 16:46:47 20.7 26 21.8
0039E024 2019-03-15 16:15:02 20.7 26 21.9
0039E024 2019-03-15 15:43:17 20.7 26 21.8
0039E024 2019-03-15 15:11:32 20.7 26 22
0039E024 2019-03-15 14:39:46 20.7 26 22
0039E024 2019-03-15 14:08:01 20.7 26 22.2
0039E024 2019-03-15 13:36:17 20.7 26 22.3
0039E024 2019-03-15 13:04:31 20.7 26 22.5
0039E024 2019-03-15 12:32:45 20.7 26 22.6
0039E024 2019-03-15 12:00:59 20.7 26 22.6
0039E024 2019-03-15 11:29:15 20.7 26 22.6
0039E024 2019-03-15 10:57:31 20.7 26 22.7
0039E024 2019-03-15 10:25:46 20.6 26 22.7
0039E024 2019-03-15 09:54:01 20.6 25 22.7
0039E024 2019-03-15 09:22:16 20.6 25 22.5
0039E024 2019-03-15 08:50:29 20.5 25 22.6
0039E024 2019-03-15 08:18:44 20.4 25 22.6
0039E024 2019-03-15 07:46:59 20.4 24 22.6
0039E024 2019-03-15 07:15:13 20.4 24 22.7
0039E024 2019-03-15 06:43:29 20.5 24 22.7
0039E024 2019-03-15 06:11:43 20.5 24 22.7
0039E024 2019-03-15 05:39:59 20.5 24 22.6
0039E024 2019-03-15 05:08:14 20.5 24 22.6
0039E024 2019-03-15 04:36:27 20.5 24 22.5
0039E024 2019-03-15 04:04:41 20.5 24 22.5
0039E024 2019-03-15 03:32:56 20.5 24 22.4
0039E024 2019-03-15 03:01:10 20.5 24 22.4
0039E024 2019-03-15 02:29:26 20.5 24 22.5
0039E024 2019-03-15 01:57:41 20.5 24 22.3
0039E024 2019-03-15 01:25:57 20.5 24 22.4
0039E024 2019-03-15 00:54:12 20.6 24 22.3
0039E024 2019-03-15 00:22:28 20.5 24 22.3
0039E024 2019-03-14 23:50:44 20.5 24 22.2
0039E024 2019-03-14 23:19:02 20.5 24 22.3
0039E024 2019-03-14 22:47:19 20.6 24 22.2
0039E024 2019-03-14 22:15:35 20.6 24 22.4
0039E024 2019-03-14 21:43:52 20.6 24 22.2
0039E024 2019-03-14 21:12:08 20.7 24 23
0039E024 2019-03-14 20:40:23 20.7 24 23.1
0039E024 2019-03-14 20:08:39 20.7 24 23
0039E024 2019-03-14 19:36:54 20.7 24 23
0039E024 2019-03-14 19:05:09 20.7 24 23
0039E024 2019-03-14 18:33:23 20.8 24 23.1
0039E024 2019-03-14 18:01:39 20.8 24 23.1
0039E024 2019-03-14 17:29:20 20.9 24 23.2
0039E024 2019-03-14 16:57:33 20.9 24 23.3
0039E024 2019-03-14 16:25:48 20.9 24 23.4
0039E024 2019-03-14 15:54:02 20.9 24 23.4
0039E024 2019-03-14 15:22:15 20.9 24 23.4
0039E024 2019-03-14 14:50:29 20.9 24 23.4
0039E024 2019-03-14 14:18:44 20.9 24 23.4
0039E024 2019-03-14 13:46:57 20.9 24 24
0039E024 2019-03-14 13:15:13 20.9 23 24.6
0039E024 2019-03-14 12:43:28 20.8 23 24.5
0039E024 2019-03-14 12:11:43 20.8 23 24.5
0039E024 2019-03-14 11:39:57 20.8 23 24.5
0039E024 2019-03-14 11:08:11 20.7 22 24.5
0039E024 2019-03-14 10:36:24 20.7 22 24.5
0039E024 2019-03-14 10:04:39 20.7 21 24.4
0039E024 2019-03-14 09:32:53 20.6 21 24.3
0039E024 2019-03-14 09:01:07 20.6 20 24.4
0039E024 2019-03-14 04:46:58 20.5 18 23.8
0039E024 2019-03-14 04:15:13 20.5 18 23.8
0039E024 2019-03-14 03:43:29 20.5 18 23.7
0039E024 2019-03-14 03:11:44 20.5 18 23.6
0039E024 2019-03-14 02:40:00 20.5 18 23.6
0039E024 2019-03-14 02:08:16 20.5 17 24.2
0039E024 2019-03-14 01:36:32 20.5 17 24.2
0039E024 2019-03-14 01:04:48 20.5 17 24.2
0039E024 2019-03-14 00:33:05 20.5 17 23.5
0039E024 2019-03-14 00:01:22 20.4 17 22.8
0039E024 2019-03-13 23:29:37 20.5 17 22.7
0039E024 2019-03-13 22:57:53 20.5 17 22.6
0039E024 2019-03-13 22:26:09 20.5 16 22.6
0039E024 2019-03-13 21:54:25 20.5 16 22.6
0039E024 2019-03-13 21:22:42 20.5 16 22.4
0039E024 2019-03-13 20:50:57 20.6 16 22.4
0039E024 2019-03-13 20:19:12 20.6 16 22.4
0039E024 2019-03-13 19:47:29 20.6 16 22.2
0039E024 2019-03-13 19:15:42 20.6 16 22.2
0039E024 2019-03-13 18:43:57 20.7 16 22
0039E024 2019-03-13 18:12:12 20.7 16 21.9
0039E024 2019-03-13 17:40:29 20.8 16 21.8
0039E024 2019-03-13 17:08:44 20.9 16 21.7
0039E024 2019-03-13 16:37:00 20.9 16 21.6
0039E024 2019-03-13 16:05:16 20.9 16 21.4
0039E024 2019-03-13 15:33:32 20.9 16 21.4
0039E024 2019-03-13 15:01:15 20.8 16 21.5
0039E024 2019-03-13 14:29:32 20.8 16 21.5
0039E024 2019-03-13 13:57:48 20.8 16 21.5
0039E024 2019-03-13 13:26:03 20.8 16 20.1
0039E024 2019-03-13 12:54:18 20.8 16 19.9
0039E024 2019-03-13 12:22:34 20.8 16 19.9
0039E024 2019-03-13 11:50:50 20.8 16 19.9
0039E024 2019-03-13 11:19:04 20.7 16 19.9
0039E024 2019-03-13 10:47:19 20.7 16 19.9
0039E024 2019-03-13 10:15:33 20.6 15 19.9
0039E024 2019-03-13 09:43:47 20.5 15 19.8
0039E024 2019-03-13 09:12:01 20.3 15 19.7
0039E024 2019-03-13 08:40:17 20.2 14 21.1
0039E024 2019-03-13 08:08:32 20.2 15 21.2
0039E024 2019-03-13 07:36:46 20.2 15 21.3
0039E024 2019-03-13 07:05:01 20.2 15 21.3
0039E024 2019-03-13 06:33:15 20.2 15 21.5
0039E024 2019-03-13 06:01:30 20.3 15 21.4
0039E024 2019-03-13 05:29:47 20.3 15 21.4
0039E024 2019-03-13 04:58:04 20.3 15 21.5
0039E024 2019-03-13 04:26:19 20.3 15 21.5
0039E024 2019-03-13 03:54:34 20.3 16 21.6
0039E024 2019-03-13 03:22:50 20.3 16 21.6
0039E024 2019-03-13 02:51:05 20.3 16 21.7
0039E024 2019-03-13 02:19:21 20.3 16 22.6
0039E024 2019-03-13 01:47:36 20.3 16 22.6
0039E024 2019-03-13 01:15:50 20.4 16 22.6
0039E024 2019-03-13 00:44:05 20.3 16 22.7
0039E024 2019-03-13 00:12:21 20.4 16 22.8
0039E024 2019-03-12 23:40:35 20.4 16 23.5
0039E024 2019-03-12 23:08:49 20.4 16 23.6
0039E024 2019-03-12 22:37:03 20.4 16 23.6
0039E024 2019-03-12 22:05:18 20.4 16 24.2
0039E024 2019-03-12 21:33:34 20.4 16 24.8
0039E024 2019-03-12 21:01:49 20.5 16 25.3
0039E024 2019-03-12 20:30:04 20.5 16 25.7
0039E024 2019-03-12 19:58:18 20.5 16 26.2
0039E024 2019-03-12 19:26:33 20.5 16 26.2
0039E024 2019-03-12 18:54:48 20.6 16 26.2
0039E024 2019-03-12 18:23:01 20.6 16 26.2
0039E024 2019-03-12 17:51:16 20.6 16 26.6
0039E024 2019-03-12 17:19:30 20.7 16 26.9
0039E024 2019-03-12 16:47:44 20.7 16 27.2
0039E024 2019-03-12 16:15:58 20.7 16 27.5
0039E024 2019-03-12 15:44:12 20.7 16 27.7
0039E024 2019-03-12 15:12:28 20.6 16 28
0039E024 2019-03-12 14:40:41 20.6 16 28.2
0039E024 2019-03-12 14:08:56 20.6 16 28.5
0039E024 2019-03-12 13:37:09 20.6 15 28.6
0039E024 2019-03-12 13:05:23 20.6 15 28.6
0039E024 2019-03-12 12:33:03 20.6 15 28.7
0039E024 2019-03-12 12:01:18 20.5 15 28.8
0039E024 2019-03-12 11:29:31 20.5 15 29
0039E024 2019-03-12 10:57:46 20.5 15 29
0039E024 2019-03-12 10:26:01 20.4 15 29.2
0039E024 2019-03-12 09:54:15 20.3 15 29.4
0039E024 2019-03-12 09:22:29 20.3 15 29.4
0039E024 2019-03-12 08:50:44 20.2 15 29.4
0039E024 2019-03-12 08:18:58 20.2 15 29.4
0039E024 2019-03-12 07:47:13 20.2 15 29.4
0039E024 2019-03-12 07:15:28 20.2 15 29.4
0039E024 2019-03-12 06:43:42 20.2 15 29.4
0039E024 2019-03-12 06:11:57 20.2 16 29.5
0039E024 2019-03-12 05:40:12 20.3 16 29.7
0039E024 2019-03-12 05:08:27 20.3 16 29.5
0039E024 2019-03-12 04:36:42 20.3 16 29.3
0039E024 2019-03-12 04:04:56 20.3 16 29.2
0039E024 2019-03-12 03:33:12 20.3 16 29
0039E024 2019-03-12 03:01:26 20.3 16 28.8
0039E024 2019-03-12 02:29:40 20.3 16 28.6
0039E024 2019-03-12 01:57:56 20.3 16 28.4
0039E024 2019-03-12 01:26:11 20.3 16 28.2
0039E024 2019-03-12 00:54:25 20.3 16 28
0039E024 2019-03-12 00:22:41 20.4 16 27.7
0039E024 2019-03-11 23:50:56 20.4 16 27.7
0039E024 2019-03-11 23:19:11 20.4 16 27.7
0039E024 2019-03-11 22:47:26 20.4 16 27.5
0039E024 2019-03-11 22:15:42 20.4 16 27.2
0039E024 2019-03-11 21:43:56 20.5 16 26.9
0039E024 2019-03-11 21:12:11 20.5 16 26.6
0039E024 2019-03-11 20:40:25 20.5 16 26.3
0039E024 2019-03-11 20:08:41 20.5 16 25.8
0039E024 2019-03-11 19:36:57 20.5 16 25.4
0039E024 2019-03-11 19:05:12 20.6 16 24.9
0039E024 2019-03-11 18:33:26 20.6 16 24.4
0039E024 2019-03-11 18:01:43 20.7 16 23.8
0039E024 2019-03-11 17:30:00 20.7 16 23.1
0039E024 2019-03-11 16:58:15 20.7 16 22.3
0039E024 2019-03-11 16:26:30 20.7 16 21.2
0039E024 2019-03-11 15:54:43 20.7 16 21.1
0039E024 2019-03-11 15:22:58 20.6 16 21.2
0039E024 2019-03-11 14:51:11 20.6 16 21.3
0039E024 2019-03-11 14:19:26 20.5 16 21.3
0039E024 2019-03-11 13:47:40 20.5 16 21.3
0039E024 2019-03-11 13:15:55 20.5 16 21.3
0039E024 2019-03-11 12:44:09 20.5 16 21.3
0039E024 2019-03-11 12:12:23 20.5 16 21.2
0039E024 2019-03-11 11:40:37 20.4 16 21
0039E024 2019-03-11 11:08:52 20.4 17 21
0039E024 2019-03-11 10:37:06 20.4 17 21.1
0039E024 2019-03-11 10:04:48 20.3 17 21.2
0039E024 2019-03-11 09:33:02 20.3 17 21.2
0039E024 2019-03-11 09:01:16 20.2 17 21.4
0039E024 2019-03-11 08:29:32 20.2 17 21.4
0039E024 2019-03-11 07:57:46 20.2 17 21.2
0039E024 2019-03-11 07:26:00 20.2 18 21.5
0039E024 2019-03-11 06:54:15 20.2 18 21.7
0039E024 2019-03-11 06:22:29 20.2 18 21.6
0039E024 2019-03-11 05:50:43 20.3 18 21.6
0039E024 2019-03-11 05:18:58 20.3 18 21.7
0039E024 2019-03-11 04:47:13 20.3 18 21.9
0039E024 2019-03-11 04:15:28 20.3 18 21.8
0039E024 2019-03-11 03:43:43 20.3 18 21.9
0039E024 2019-03-11 03:11:56 20.3 18 22.1
0039E024 2019-03-11 02:40:11 20.3 18 22.1
0039E024 2019-03-11 02:08:25 20.3 19 22.2
0039E024 2019-03-11 01:36:40 20.3 19 22.2
0039E024 2019-03-11 01:04:55 20.3 19 22.2
0039E024 2019-03-11 00:33:08 20.3 19 22.2
0039E024 2019-03-11 00:01:21 20.3 19 23
0039E024 2019-03-10 23:29:35 20.4 19 23
0039E024 2019-03-10 22:57:49 20.4 19 23
0039E024 2019-03-10 22:26:04 20.4 19 22.8
0039E024 2019-03-10 21:54:19 20.4 19 22.7
0039E024 2019-03-10 21:22:34 20.4 19 22.6
0039E024 2019-03-10 20:50:48 20.4 19 22.5
0039E024 2019-03-10 20:19:03 20.4 20 22.5
0039E024 2019-03-10 19:47:16 20.4 20 22.6
0039E024 2019-03-10 19:15:32 20.5 20 22.6
0039E024 2019-03-10 18:43:47 20.5 20 22.7
0039E024 2019-03-10 18:12:02 20.5 20 22.5
0039E024 2019-03-10 17:40:16 20.5 20 22.5
0039E024 2019-03-10 17:08:31 20.6 20 22.7
0039E024 2019-03-10 16:36:44 20.5 21 22.6
0039E024 2019-03-10 16:04:58 20.5 21 22.5
0039E024 2019-03-10 15:33:13 20.5 21 22.4
0039E024 2019-03-10 15:01:27 20.5 22 22.6
0039E024 2019-03-10 14:29:41 20.5 23 22.5
0039E024 2019-03-10 13:57:54 20.5 23 23.2
0039E024 2019-03-10 13:26:10 20.4 23 23.3
0039E024 2019-03-10 12:54:25 20.4 23 23.8
0039E024 2019-03-10 12:22:39 20.4 24 23.8
0039E024 2019-03-10 11:50:53 20.4 24 23.8
0039E024 2019-03-10 11:19:08 20.4 24 23.8
0039E024 2019-03-10 10:47:22 20.4 24 23.2
0039E024 2019-03-10 10:15:37 20.4 24 23.2
0039E024 2019-03-10 09:43:53 20.4 24 23.3
0039E024 2019-03-10 09:12:10 20.4 24 23.4
0039E024 2019-03-10 08:40:26 20.4 24 23.4
0039E024 2019-03-10 08:08:42 20.4 24 23.4
0039E024 2019-03-10 07:36:24 20.4 24 23.5
0039E024 2019-03-10 07:04:39 20.4 24 23.5
0039E024 2019-03-10 06:32:55 20.4 24 23.5
0039E024 2019-03-10 06:01:11 20.4 24 23.4
0039E024 2019-03-10 05:29:26 20.4 24 23.4
0039E024 2019-03-10 04:57:41 20.4 24 23.4
0039E024 2019-03-10 04:25:55 20.4 24 23.3
0039E024 2019-03-10 03:54:10 20.4 24 23.3
0039E024 2019-03-10 03:22:24 20.4 24 23.3
0039E024 2019-03-10 02:50:39 20.4 24 23.4
0039E024 2019-03-10 02:18:52 20.4 24 23.3
0039E024 2019-03-10 01:47:05 20.4 24 23.3
0039E024 2019-03-10 01:15:19 20.5 24 22.5
0039E024 2019-03-10 00:43:33 20.5 24 22.5
0039E024 2019-03-10 00:11:47 20.5 23 21.7
0039E024 2019-03-09 23:40:02 20.4 23 21.7
0039E024 2019-03-09 23:08:18 20.5 23 21.7
0039E024 2019-03-09 22:36:33 20.5 23 21.7
0039E024 2019-03-09 22:04:46 20.5 23 21.8
0039E024 2019-03-09 21:33:01 20.5 23 21.8
0039E024 2019-03-09 21:01:15 20.5 23 22
0039E024 2019-03-09 20:29:30 20.5 23 22
0039E024 2019-03-09 19:57:45 20.5 23 22.3
0039E024 2019-03-09 19:25:59 20.5 23 22.3
0039E024 2019-03-09 18:54:15 20.6 23 22.3
0039E024 2019-03-09 18:22:30 20.6 23 22.3
0039E024 2019-03-09 17:50:45 20.6 23 22.2
0039E024 2019-03-09 17:19:00 20.6 23 22.2
0039E024 2019-03-09 16:47:16 20.6 23 22.2
0039E024 2019-03-09 16:15:31 20.6 23 22.2
0039E024 2019-03-09 15:43:44 20.6 23 22.4
0039E024 2019-03-09 15:12:00 20.6 23 22.2
0039E024 2019-03-09 14:40:14 20.6 23 22.2
0039E024 2019-03-09 14:08:28 20.6 23 22.2
0039E024 2019-03-09 13:36:43 20.6 23 22.2
0039E024 2019-03-09 13:04:57 20.5 23 22.1
0039E024 2019-03-09 12:33:10 20.5 23 22.1
0039E024 2019-03-09 12:01:26 20.5 24 22.2
0039E024 2019-03-09 11:29:40 20.5 24 22.1
0039E024 2019-03-09 10:57:53 20.5 24 22.1
0039E024 2019-03-09 10:26:06 20.4 24 22.1
0039E024 2019-03-09 09:54:19 20.4 24 22.1
0039E024 2019-03-09 09:22:32 20.4 24 22.2
0039E024 2019-03-09 08:50:45 20.4 24 22.1
0039E024 2019-03-09 08:18:57 20.4 25 22.1
0039E024 2019-03-09 07:47:10 20.4 25 22
0039E024 2019-03-09 07:15:22 20.5 25 22
0039E024 2019-03-09 06:43:35 20.5 25 21.8
0039E024 2019-03-09 06:11:47 20.5 26 21.8
0039E024 2019-03-09 05:40:01 20.5 26 21.8
0039E024 2019-03-09 05:07:40 20.5 26 21.6
0039E024 2019-03-09 04:35:53 20.5 26 22.4
0039E024 2019-03-09 04:04:07 20.5 26 22.4
0039E024 2019-03-09 03:32:19 20.6 26 22.3
0039E024 2019-03-09 03:00:32 20.6 26 22.1
0039E024 2019-03-09 02:28:45 20.6 26 22
0039E024 2019-03-09 01:56:56 20.6 26 22
0039E024 2019-03-09 01:25:08 20.6 27 22.9
0039E024 2019-03-09 00:53:21 20.6 27 22.9
0039E024 2019-03-09 00:21:34 20.6 27 23
0039E024 2019-03-08 23:49:45 20.7 27 22.9
0039E024 2019-03-08 23:17:57 20.7 27 22.9
0039E024 2019-03-08 22:46:10 20.7 27 22.9
0039E024 2019-03-08 22:14:23 20.7 27 22.8
0039E024 2019-03-08 21:42:35 20.8 27 22.7
0039E024 2019-03-08 21:10:46 20.8 27 22.6
0039E024 2019-03-08 20:38:57 20.8 27 22.4
0039E024 2019-03-08 20:07:11 20.8 27 22.4
0039E024 2019-03-08 19:35:24 20.9 27 22.2
0039E024 2019-03-08 19:03:37 20.9 27 22
0039E024 2019-03-08 18:31:50 20.9 27 21.8
0039E024 2019-03-08 18:00:03 20.9 27 21.8
0039E024 2019-03-08 17:28:16 21 27 21.7
0039E024 2019-03-08 16:56:28 21.1 27 21.7
0039E024 2019-03-08 16:24:41 21 27 21.6
0039E024 2019-03-08 15:52:53 21 27 21.6
0039E024 2019-03-08 15:21:09 21 27 20.2
0039E024 2019-03-08 14:49:23 20.9 27 20.2
0039E024 2019-03-08 14:17:39 20.9 27 20.4
0039E024 2019-03-08 13:45:50 20.9 27 20.4
0039E024 2019-03-08 13:14:03 20.8 27 20.4
0039E024 2019-03-08 12:42:16 20.8 26 20.4
0039E024 2019-03-08 12:10:30 20.8 26 18.6
0039E024 2019-03-08 11:38:44 20.7 25 18.7
0039E024 2019-03-08 11:06:57 20.7 25 18.3
0039E024 2019-03-08 10:35:11 20.7 25 18.3
0039E024 2019-03-08 10:03:25 20.7 25 18.2
0039E024 2019-03-08 09:31:39 20.6 25 17.9
0039E024 2019-03-08 08:59:54 20.6 24 18.1
0039E024 2019-03-08 08:28:09 20.6 24 18
0039E024 2019-03-08 07:56:23 20.6 24 17.9
0039E024 2019-03-08 07:24:37 20.6 24 17.9
0039E024 2019-03-08 06:52:51 20.6 23 17.8
0039E024 2019-03-08 06:21:06 20.6 23 17.8
0039E024 2019-03-08 05:49:20 20.6 23 17.9
0039E024 2019-03-08 05:17:37 20.6 23 18
0039E024 2019-03-08 04:45:49 20.6 23 17.9
0039E024 2019-03-08 04:14:03 20.6 23 18
0039E024 2019-03-08 03:42:17 20.6 23 18.2
0039E024 2019-03-08 03:10:31 20.6 23 18.2
0039E024 2019-03-08 02:38:05 20.6 23 20.4
0039E024 2019-03-08 02:06:18 20.6 23 20.5
0039E024 2019-03-08 01:34:30 20.6 23 20.6
0039E024 2019-03-08 01:02:44 20.6 23 20.7
0039E024 2019-03-08 00:30:57 20.6 23 20.7
0039E024 2019-03-07 23:59:09 20.6 22 20.8
0039E024 2019-03-07 23:27:23 20.6 22 21
0039E024 2019-03-07 22:55:36 20.6 22 20.9
0039E024 2019-03-07 22:23:48 20.7 22 21
0039E024 2019-03-07 21:52:00 20.7 22 21.1
0039E024 2019-03-07 21:20:15 20.7 22 21.1
0039E024 2019-03-07 20:48:26 20.7 22 21.2
0039E024 2019-03-07 20:16:40 20.8 22 21.2
0039E024 2019-03-07 19:44:54 20.8 23 21.2
0039E024 2019-03-07 19:13:06 20.8 23 22.3
0039E024 2019-03-07 18:41:20 20.9 23 22.4
0039E024 2019-03-07 18:09:34 21 23 22.5
0039E024 2019-03-07 17:37:47 21 23 22.5
0039E024 2019-03-07 17:06:00 21.1 23 22.6
0039E024 2019-03-07 16:34:14 21.1 23 22.7
0039E024 2019-03-07 16:02:30 21.1 23 22.7
0039E024 2019-03-07 15:30:41 21.1 22 22.7
0039E024 2019-03-07 14:58:54 21.1 22 22.6
0039E024 2019-03-07 14:27:07 21.1 22 23.4
0039E024 2019-03-07 13:55:20 21 21 23.4
0039E024 2019-03-07 13:23:34 20.9 21 22.5
0039E024 2019-03-07 12:51:47 20.9 20 22.6
0039E024 2019-03-07 12:20:00 20.8 20 22.6
0039E024 2019-03-07 11:48:12 20.8 20 22.7
0039E024 2019-03-07 11:16:25 20.8 19 22.8
0039E024 2019-03-07 10:44:38 20.7 19 22.7
0039E024 2019-03-07 10:12:50 20.6 18 22.7
0039E024 2019-03-07 09:41:04 20.6 17 22.8
0039E024 2019-03-07 09:09:17 20.6 17 22.7
0039E024 2019-03-07 08:37:30 20.6 16 22.6
0039E024 2019-03-07 08:05:42 20.6 16 22.7
0039E024 2019-03-07 07:33:55 20.6 16 22.8
0039E024 2019-03-07 07:02:09 20.6 15 22.7
0039E024 2019-03-07 06:30:23 20.5 15 22.7
0039E024 2019-03-07 05:58:38 20.6 15 21.9
0039E024 2019-03-07 05:26:51 20.6 15 22.8
0039E024 2019-03-07 04:55:05 20.6 14 22.8
0039E024 2019-03-07 04:23:19 20.6 14 22.8
0039E024 2019-03-07 03:51:32 20.6 14 22.7
0039E024 2019-03-07 03:19:46 20.6 14 22.6
0039E024 2019-03-07 02:47:59 20.5 13 22.6
0039E024 2019-03-07 02:16:11 20.6 13 22.7
0039E024 2019-03-07 01:44:24 20.6 13 22.7
0039E024 2019-03-07 01:12:38 20.6 13 21.8
0039E024 2019-03-07 00:40:51 20.6 13 21.8
0039E024 2019-03-07 00:08:33 20.5 13 22.6
0039E024 2019-03-06 23:36:48 20.6 12 22.5
0039E024 2019-03-06 23:05:01 20.6 12 22.4
0039E024 2019-03-06 22:33:13 20.6 12 22.3
0039E024 2019-03-06 22:01:27 20.6 12 22.4
0039E024 2019-03-06 21:29:41 20.6 12 22.2
0039E024 2019-03-06 20:57:56 20.6 12 22
0039E024 2019-03-06 20:26:10 20.7 11 22
0039E024 2019-03-06 19:54:24 20.7 11 22
0039E024 2019-03-06 19:22:37 20.7 11 22
0039E024 2019-03-06 18:50:51 20.7 11 21.8
0039E024 2019-03-06 18:19:04 20.7 11 21.8
0039E024 2019-03-06 17:47:17 20.7 11 21.8
0039E024 2019-03-06 17:15:32 20.8 11 21.6
0039E024 2019-03-06 16:43:46 20.8 11 20.3
0039E024 2019-03-06 16:11:59 20.8 10 20.3
0039E024 2019-03-06 15:40:12 20.8 10 20.3
0039E024 2019-03-06 15:08:26 20.8 11 20.3
0039E024 2019-03-06 14:36:39 20.7 11 20.3
0039E024 2019-03-06 14:04:52 20.6 10 20.4
0039E024 2019-03-06 13:33:06 20.5 10 20.3
0039E024 2019-03-06 13:01:19 20.5 10 20.4
0039E024 2019-03-06 12:29:32 20.5 10 20.3
0039E024 2019-03-06 11:57:46 20.5 10 20.4
0039E024 2019-03-06 11:26:00 20.4 11 18.7
0039E024 2019-03-06 10:54:14 20.5 11 18.6
0039E024 2019-03-06 10:22:28 20.4 11 18.6
0039E024 2019-03-06 09:50:41 20.3 10 18.6
0039E024 2019-03-06 09:18:54 20.2 10 18.4
0039E024 2019-03-06 08:47:08 20.2 11 18.2
0039E024 2019-03-06 08:15:22 20.3 11 18.3
0039E024 2019-03-06 07:43:35 20.3 11 18.5
0039E024 2019-03-06 07:11:49 20.3 11 18.5
0039E024 2019-03-06 06:40:03 20.4 12 18.7
0039E024 2019-03-06 06:08:17 20.4 12 18.6
0039E024 2019-03-06 05:36:31 20.4 12 18.7
0039E024 2019-03-06 05:04:47 20.4 12 18.5
0039E024 2019-03-06 04:32:59 20.4 12 18.4
0039E024 2019-03-06 04:01:13 20.4 12 18.4
0039E024 2019-03-06 03:29:27 20.4 12 18.6
0039E024 2019-03-06 02:57:40 20.4 12 18.6
0039E024 2019-03-06 02:25:55 20.5 12 20.4
0039E024 2019-03-06 01:54:08 20.5 12 21.6
0039E024 2019-03-06 01:22:22 20.5 12 21.6
0039E024 2019-03-06 00:50:35 20.6 12 21.5
0039E024 2019-03-06 00:18:49 20.6 12 21.5
0039E024 2019-03-05 23:47:01 20.6 12 21.3
0039E024 2019-03-05 23:15:14 20.7 12 21.4
0039E024 2019-03-05 22:43:27 20.7 12 21.5
0039E024 2019-03-05 22:11:39 20.7 12 21.6
0039E024 2019-03-05 21:39:20 20.7 12 21.6
0039E024 2019-03-05 21:07:32 20.7 12 21.6
0039E024 2019-03-05 20:35:47 20.7 12 21.7
0039E024 2019-03-05 20:04:00 20.8 12 21.8
0039E024 2019-03-05 19:32:16 20.8 12 21.9
0039E024 2019-03-05 19:00:31 20.7 12 21.9
0039E024 2019-03-05 18:28:49 20.8 12 21.8
0039E024 2019-03-05 17:57:01 20.8 13 21.8
0039E024 2019-03-05 17:25:15 20.9 13 22
0039E024 2019-03-05 16:53:28 20.9 13 22
0039E024 2019-03-05 16:21:42 20.8 14 22
0039E024 2019-03-05 15:49:55 20.8 14 22.1
0039E024 2019-03-05 15:18:09 20.6 15 22.1
0039E024 2019-03-05 14:46:22 20.5 15 22.1
0039E024 2019-03-05 14:14:36 20.5 15 22.1
0039E024 2019-03-05 13:42:49 20.5 16 21
0039E024 2019-03-05 13:11:05 20.4 16 19.6
0039E024 2019-03-05 12:39:16 20.4 16 19.7
0039E024 2019-03-05 12:07:29 20.4 16 19.8
0039E024 2019-03-05 11:35:42 20.4 17 19.9
0039E024 2019-03-05 11:03:56 20.3 17 19.9
0039E024 2019-03-05 10:32:11 20.3 17 19.6
0039E024 2019-03-05 10:00:24 20.3 17 19.5
0039E024 2019-03-05 09:28:38 20.3 18 19.4
0039E024 2019-03-05 08:56:52 20.3 18 19.5
0039E024 2019-03-05 08:25:05 20.3 18 19.6
0039E024 2019-03-05 07:53:19 20.4 18 19.6
0039E024 2019-03-05 07:21:32 20.4 19 19.5
0039E024 2019-03-05 06:49:47 20.4 19 19.4
0039E024 2019-03-05 06:18:02 20.4 19 19.2
0039E024 2019-03-05 05:46:15 20.4 19 19.2
0039E024 2019-03-05 05:14:29 20.4 19 19.1
0039E024 2019-03-05 04:42:44 20.4 19 19
0039E024 2019-03-05 04:10:57 20.4 19 18.5
0039E024 2019-03-05 03:39:12 20.4 19 18.3
0039E024 2019-03-05 03:07:26 20.4 19 18.2
0039E024 2019-03-05 02:35:40 20.4 19 18.1
0039E024 2019-03-05 02:03:55 20.4 19 18.1
0039E024 2019-03-05 01:32:09 20.4 19 18.2
0039E024 2019-03-05 01:00:23 20.4 18 18.1
0039E024 2019-03-05 00:28:37 20.4 18 17.9
0039E024 2019-03-04 23:56:51 20.4 18 18
0039E024 2019-03-04 23:25:05 20.4 18 18
0039E024 2019-03-04 22:53:20 20.4 18 17.8
0039E024 2019-03-04 22:21:34 20.4 18 17.9
0039E024 2019-03-04 21:49:48 20.4 18 18
0039E024 2019-03-04 21:18:03 20.4 18 18
0039E024 2019-03-04 20:46:18 20.4 18 17.7
0039E024 2019-03-04 20:14:33 20.4 18 17.4
0039E024 2019-03-04 19:42:48 20.4 18 17.5
0039E024 2019-03-04 19:10:28 20.4 18 17.7
0039E024 2019-03-04 18:38:43 20.4 18 17.8
0039E024 2019-03-04 18:06:58 20.4 18 17.8
0039E024 2019-03-04 17:35:13 20.4 18 17.9
0039E024 2019-03-04 17:03:27 20.4 18 18.1
0039E024 2019-03-04 16:31:41 20.4 17 18.4
0039E024 2019-03-04 15:59:55 20.4 17 20.3
0039E024 2019-03-04 15:28:08 20.3 17 20.4
0039E024 2019-03-04 14:56:22 20.3 17 20.5
0039E024 2019-03-04 14:24:35 20.3 17 20.7
0039E024 2019-03-04 13:52:48 20.3 17 20.7
0039E024 2019-03-04 13:21:06 20.2 17 20.8
0039E024 2019-03-04 12:49:18 20.2 17 20.6
0039E024 2019-03-04 12:17:34 20.2 16 20.6
0039E024 2019-03-04 11:45:50 20.1 16 21.8
0039E024 2019-03-04 11:14:04 20.1 16 21.7
0039E024 2019-03-04 10:42:18 20.1 16 21.7
0039E024 2019-03-04 10:10:31 20 16 21.6
0039E024 2019-03-04 09:38:46 20 17 21.7
0039E024 2019-03-04 09:07:00 19.9 17 21.7
0039E024 2019-03-04 08:35:13 19.9 17 21.8
0039E024 2019-03-04 08:03:26 19.9 17 21.8
0039E024 2019-03-04 07:31:40 19.9 17 21.9
0039E024 2019-03-04 06:59:52 20 17 21.8
0039E024 2019-03-04 06:28:06 19.9 17 21.9
0039E024 2019-03-04 05:56:20 19.9 17 21.9
0039E024 2019-03-04 05:24:34 19.9 17 22
0039E024 2019-03-04 04:52:49 19.9 17 22.1
0039E024 2019-03-04 04:21:05 20 17 23
0039E024 2019-03-04 03:49:20 20 17 23
0039E024 2019-03-04 03:17:33 19.9 17 23
0039E024 2019-03-04 02:45:47 20 17 22.3
0039E024 2019-03-04 02:14:02 20 17 22.4
0039E024 2019-03-04 01:42:17 20 17 22.5
0039E024 2019-03-04 01:10:32 20 17 22.5
0039E024 2019-03-04 00:38:47 20 17 22.6
0039E024 2019-03-04 00:07:03 20 17 22.7
0039E024 2019-03-03 23:35:17 20 17 22.7
0039E024 2019-03-03 23:03:31 20 17 23
0039E024 2019-03-03 22:31:46 20 17 22.2
0039E024 2019-03-03 21:59:59 20 17 23.1
0039E024 2019-03-03 21:28:13 20 17 23.2
0039E024 2019-03-03 20:56:27 20 17 23.2
0039E024 2019-03-03 20:24:42 20 17 23.1
0039E024 2019-03-03 19:52:56 20 18 23.1
0039E024 2019-03-03 19:21:11 20.1 18 23.2
0039E024 2019-03-03 18:49:26 20 18 23.3
0039E024 2019-03-03 18:17:41 20.1 18 23.4
0039E024 2019-03-03 17:45:55 20.1 18 23.4
0039E024 2019-03-03 17:14:11 20.1 18 23.5
0039E024 2019-03-03 16:41:53 20.1 18 23.4
0039E024 2019-03-03 16:10:08 20.1 18 23.3
0039E024 2019-03-03 15:38:22 20.1 18 22.7
0039E024 2019-03-03 15:06:36 20.1 18 22.7
0039E024 2019-03-03 14:34:50 20.1 18 22.7
0039E024 2019-03-03 14:03:03 20.1 18 22.9
0039E024 2019-03-03 13:31:17 20.1 18 22.9
0039E024 2019-03-03 12:59:30 20 18 22.8
0039E024 2019-03-03 12:27:42 20 18 22.8
0039E024 2019-03-03 11:55:54 20 18 22.8
0039E024 2019-03-03 11:24:07 20 18 22.8
0039E024 2019-03-03 10:52:21 20 18 22.7
0039E024 2019-03-03 10:20:35 20.1 18 22.5
0039E024 2019-03-03 09:48:48 20.1 18 22.6
0039E024 2019-03-03 09:17:01 20.1 18 21.7
0039E024 2019-03-03 08:45:16 20.1 18 21.7
0039E024 2019-03-03 08:13:30 20.1 18 21.7
0039E024 2019-03-03 07:41:45 20.1 18 22.7
0039E024 2019-03-03 07:09:59 20.1 18 22.8
0039E024 2019-03-03 06:38:14 20.1 18 23.4
0039E024 2019-03-03 06:06:27 20.1 18 23.4
0039E024 2019-03-03 05:34:43 20.2 18 23.4
0039E024 2019-03-03 05:02:58 20.2 18 23.3
0039E024 2019-03-03 04:31:13 20.2 18 23.2
0039E024 2019-03-03 03:59:27 20.2 18 23.9
0039E024 2019-03-03 03:27:41 20.2 18 23.8
0039E024 2019-03-03 02:55:55 20.2 18 23.9
0039E024 2019-03-03 02:24:09 20.2 18 23.8
0039E024 2019-03-03 01:52:23 20.2 18 23.8
0039E024 2019-03-03 01:20:36 20.2 18 23.7
0039E024 2019-03-03 00:48:51 20.2 18 23.5
0039E024 2019-03-03 00:17:07 20.2 18 23.5
0039E024 2019-03-02 23:45:21 20.2 18 23.5
0039E024 2019-03-02 23:13:35 20.2 18 23.5
0039E024 2019-03-02 22:41:50 20.2 18 23.7
0039E024 2019-03-02 22:10:04 20.3 17 24.3
0039E024 2019-03-02 21:38:18 20.3 17 24.3
0039E024 2019-03-02 21:06:32 20.3 17 24.4
0039E024 2019-03-02 20:34:46 20.3 17 24.9
0039E024 2019-03-02 20:03:00 20.3 17 24.9
0039E024 2019-03-02 19:31:12 20.3 17 24.9
0039E024 2019-03-02 18:59:26 20.3 17 24.9
0039E024 2019-03-02 18:27:41 20.4 17 24.4
0039E024 2019-03-02 17:55:55 20.4 17 24.3
0039E024 2019-03-02 17:24:08 20.4 17 23.8
0039E024 2019-03-02 16:52:22 20.4 17 23.8
0039E024 2019-03-02 16:20:35 20.4 17 23.9
0039E024 2019-03-02 15:48:47 20.4 17 23.9
0039E024 2019-03-02 15:17:00 20.4 17 24
0039E024 2019-03-02 14:45:13 20.3 16 23.4
0039E024 2019-03-02 14:12:52 20.3 16 23.5
0039E024 2019-03-02 13:41:05 20.3 16 23.5
0039E024 2019-03-02 13:09:19 20.3 16 23.6
0039E024 2019-03-02 12:37:31 20.3 16 24.3
0039E024 2019-03-02 12:05:45 20.3 16 24.3
0039E024 2019-03-02 11:33:58 20.2 16 24.2
0039E024 2019-03-02 11:02:11 20.3 16 24.2
0039E024 2019-03-02 10:30:24 20.3 16 24.2
0039E024 2019-03-02 09:58:37 20.3 15 24.2
0039E024 2019-03-02 09:26:50 20.2 15 23.5
0039E024 2019-03-02 08:55:03 20.3 15 23.4
0039E024 2019-03-02 08:23:17 20.3 15 23.2
0039E024 2019-03-02 07:51:29 20.3 15 22.5
0039E024 2019-03-02 07:19:42 20.3 15 22.4
0039E024 2019-03-02 06:47:53 20.3 15 22.3
0039E024 2019-03-02 06:16:06 20.3 15 22.3
0039E024 2019-03-02 05:44:21 20.3 15 22.4
0039E024 2019-03-02 05:12:36 20.4 14 22.5
0039E024 2019-03-02 04:40:49 20.4 14 22.3
0039E024 2019-03-02 04:09:03 20.4 14 22.4
0039E024 2019-03-02 03:37:18 20.4 14 22.2
0039E024 2019-03-02 03:05:34 20.5 14 22.1
0039E024 2019-03-02 02:33:50 20.5 14 22
0039E024 2019-03-02 02:02:05 20.5 14 21.8
0039E024 2019-03-02 01:30:20 20.5 13 21.6
0039E024 2019-03-02 00:58:35 20.6 13 21.6
0039E024 2019-03-02 00:26:49 20.6 13 21.5
0039E024 2019-03-01 23:55:03 20.7 13 21.5
0039E024 2019-03-01 23:23:16 20.7 13 20.3
0039E024 2019-03-01 22:51:31 20.7 13 21.5
0039E024 2019-03-01 22:19:45 20.8 13 21.7
0039E024 2019-03-01 21:47:58 20.9 12 21.6
0039E024 2019-03-01 21:16:15 20.9 12 21.6
0039E024 2019-03-01 20:44:26 20.9 12 21.7
0039E024 2019-03-01 20:12:39 20.9 12 21.7
0039E024 2019-03-01 19:40:54 20.9 12 21.8
0039E024 2019-03-01 19:09:08 20.8 11 21.8
0039E024 2019-03-01 18:37:22 20.9 11 21.9
0039E024 2019-03-01 18:05:36 21 12 21.9
0039E024 2019-03-01 17:33:50 21 12 22
0039E024 2019-03-01 17:02:03 21.1 12 22.1
0039E024 2019-03-01 16:30:16 21.1 13 22.2
0039E024 2019-03-01 15:58:29 21 13 22.1
0039E024 2019-03-01 15:26:42 21 13 22.3
0039E024 2019-03-01 14:54:56 20.8 14 22.1
0039E024 2019-03-01 14:23:11 20.7 14 22.2
0039E024 2019-03-01 13:51:25 20.7 14 22.3
0039E024 2019-03-01 13:19:40 20.7 14 22.3
0039E024 2019-03-01 12:47:53 20.7 14 22.4
0039E024 2019-03-01 12:16:08 20.7 15 22.4
0039E024 2019-03-01 11:43:49 20.7 15 22.6
0039E024 2019-03-01 11:12:02 20.7 16 22.5
0039E024 2019-03-01 10:40:15 20.6 15 22.5
0039E024 2019-03-01 10:08:30 20.5 15 21.4
0039E024 2019-03-01 09:36:44 20.4 15 21.4
0039E024 2019-03-01 09:04:57 20.4 16 21.4
0039E024 2019-03-01 08:33:12 20.4 16 21.3
0039E024 2019-03-01 08:01:26 20.4 17 21.2
0039E024 2019-03-01 07:29:39 20.4 17 21.2
0039E024 2019-03-01 06:57:52 20.5 17 21.2
0039E024 2019-03-01 06:26:07 20.5 17 21.3
0039E024 2019-03-01 05:54:20 20.5 18 21.2
0039E024 2019-03-01 05:22:34 20.5 18 21.1
0039E024 2019-03-01 04:50:49 20.5 18 21.1
0039E024 2019-03-01 04:19:02 20.5 18 20.9
0039E024 2019-03-01 03:47:17 20.5 19 20.7
0039E024 2019-03-01 03:15:31 20.5 19 20.6
0039E024 2019-03-01 02:43:47 20.5 19 20.4
0039E024 2019-03-01 02:12:01 20.5 19 20.5
0039E024 2019-03-01 01:40:15 20.5 20 20.5
0039E024 2019-03-01 01:08:29 20.6 20 20.7
0039E024 2019-03-01 00:36:44 20.6 20 20.6
0039E024 2019-03-01 00:04:59 20.6 21 20.6
0039E024 2019-02-28 23:33:13 20.6 21 20.8
0039E024 2019-02-28 23:01:31 20.7 21 20.6
0039E024 2019-02-28 22:29:44 20.7 22 20.5
0039E024 2019-02-28 21:57:59 20.7 22 20.6
0039E024 2019-02-28 21:26:13 20.8 22 20.7
0039E024 2019-02-28 20:54:27 20.8 22 20.8
0039E024 2019-02-28 20:22:41 20.8 23 20.6
0039E024 2019-02-28 19:50:55 20.8 23 20.4
0039E024 2019-02-28 19:19:08 20.9 23 20.4
0039E024 2019-02-28 18:47:23 20.9 23 20.3
0039E024 2019-02-28 18:15:37 21 24 20.3
0039E024 2019-02-28 17:43:52 21.1 25 21.5
0039E024 2019-02-28 17:12:06 21.2 26 21.5
0039E024 2019-02-28 16:40:22 21.2 27 21.3
0039E024 2019-02-28 16:08:38 21.2 26 21.4
0039E024 2019-02-28 15:36:53 21.1 26 21.4
0039E024 2019-02-28 15:05:09 21.1 25 21.4
0039E024 2019-02-28 14:33:24 21.1 25 21.4
0039E024 2019-02-28 14:01:41 21.1 25 21.4
0039E024 2019-02-28 13:29:53 21 25 21.5
0039E024 2019-02-28 12:58:08 21 25 21.5
0039E024 2019-02-28 12:26:23 21 25 21.4
0039E024 2019-02-28 11:54:38 20.9 25 21.3
0039E024 2019-02-28 11:22:52 20.9 25 21.5
0039E024 2019-02-28 10:51:06 20.8 24 21.5
0039E024 2019-02-28 10:19:20 20.7 23 21.3
0039E024 2019-02-28 09:47:33 20.7 22 21.3
0039E024 2019-02-28 09:15:15 20.6 22 21.4
0039E024 2019-02-28 08:43:29 20.6 22 21.3
0039E024 2019-02-28 08:11:43 20.6 22 21.4
0039E024 2019-02-28 07:39:58 20.6 22 21.4
0039E024 2019-02-28 07:08:09 20.6 22 21.4
0039E024 2019-02-28 06:36:23 20.6 22 21.5
0039E024 2019-02-28 06:04:36 20.6 22 21.7
0039E024 2019-02-28 05:32:50 20.7 22 21.8
0039E024 2019-02-28 05:01:03 20.7 21 20.6
0039E024 2019-02-28 04:29:15 20.7 21 20.7
0039E024 2019-02-28 03:57:30 20.7 21 20.7
0039E024 2019-02-28 03:25:43 20.7 21 20.7
0039E024 2019-02-28 02:53:56 20.7 21 20.7
0039E024 2019-02-28 02:22:08 20.7 21 20.9
0039E024 2019-02-28 01:50:22 20.7 21 21.2
0039E024 2019-02-28 01:18:35 20.7 21 21.2
0039E024 2019-02-28 00:46:48 20.8 22 21.2
0039E024 2019-02-28 00:15:01 20.8 22 21.4
0039E024 2019-02-27 23:43:13 20.8 22 21.4
0039E024 2019-02-27 23:11:25 20.8 22 22.4
0039E024 2019-02-27 22:39:39 20.9 22 22.2
0039E024 2019-02-27 22:07:52 20.9 22 22.2
0039E024 2019-02-27 21:36:05 21 22 22.2
0039E024 2019-02-27 21:04:19 21 22 22.3
0039E024 2019-02-27 20:32:32 21 23 22.1
0039E024 2019-02-27 20:00:45 21.1 23 22.1
0039E024 2019-02-27 19:28:57 21.1 23 22.2
0039E024 2019-02-27 18:57:09 21.2 23 22.1
0039E024 2019-02-27 18:25:23 21.2 23 22.3
0039E024 2019-02-27 17:53:37 21.4 24 22.4
0039E024 2019-02-27 17:21:50 21.4 25 22.3
0039E024 2019-02-27 16:50:02 21.4 26 22.2
0039E024 2019-02-27 16:18:15 21.4 26 22.2
0039E024 2019-02-27 15:46:27 21.4 26 22.4
0039E024 2019-02-27 15:14:39 21.3 26 22.4
0039E024 2019-02-27 14:42:52 21.2 26 22.6
0039E024 2019-02-27 14:11:04 21.1 26 22.6
0039E024 2019-02-27 13:39:17 21 25 22.7
0039E024 2019-02-27 13:07:30 21 25 22.7
0039E024 2019-02-27 12:35:42 21 25 22.6
0039E024 2019-02-27 12:03:54 21 26 22.7
0039E024 2019-02-27 11:32:06 21 25 22.8
0039E024 2019-02-27 11:00:18 20.9 26 22.9
0039E024 2019-02-27 10:28:29 20.9 26 22.9
0039E024 2019-02-27 09:56:42 20.8 25 22.1
0039E024 2019-02-27 09:24:55 20.7 24 22.3
0039E024 2019-02-27 08:53:08 20.7 24 22.4
0039E024 2019-02-27 08:21:21 20.8 23 22.3
0039E024 2019-02-27 07:49:35 20.7 23 22.2
0039E024 2019-02-27 07:17:48 20.8 23 22.3
0039E024 2019-02-27 06:45:28 20.8 23 22.4
0039E024 2019-02-27 06:13:42 20.8 23 22.4
0039E024 2019-02-27 05:41:56 20.8 23 22.2
0039E024 2019-02-27 05:10:10 20.8 23 22.3
0039E024 2019-02-27 04:38:24 20.8 23 22.3
0039E024 2019-02-27 04:06:39 20.9 23 22.3
0039E024 2019-02-27 03:34:53 20.9 23 22.3
0039E024 2019-02-27 03:03:06 20.9 23 22.1
0039E024 2019-02-27 02:31:20 20.9 23 22.1
0039E024 2019-02-27 01:59:34 20.9 23 22.9
0039E024 2019-02-27 01:27:48 21 23 23.6
0039E024 2019-02-27 00:56:03 21 23 23.6
0039E024 2019-02-27 00:24:16 21.1 23 23.5
0039E024 2019-02-26 23:52:30 21.1 23 24.1
0039E024 2019-02-26 23:20:44 21.1 23 24.6
0039E024 2019-02-26 22:48:59 21.2 23 24.6
0039E024 2019-02-26 22:17:12 21.2 24 24.5
0039E024 2019-02-26 21:45:26 21.3 24 24.9
0039E024 2019-02-26 21:13:40 21.3 24 25.4
0039E024 2019-02-26 20:41:54 21.4 24 25.8
0039E024 2019-02-26 20:10:09 21.4 24 26.1
0039E024 2019-02-26 19:38:22 21.4 24 26.5
0039E024 2019-02-26 19:06:36 21.5 24 26.9
0039E024 2019-02-26 18:34:51 21.5 24 27.2
0039E024 2019-02-26 18:03:05 21.6 24 27.4
0039E024 2019-02-26 17:31:20 21.7 24 27.4
0039E024 2019-02-26 16:59:34 21.7 25 27.7
0039E024 2019-02-26 16:27:48 21.6 25 27.9
0039E024 2019-02-26 15:56:02 21.6 25 28.1
0039E024 2019-02-26 15:24:17 21.5 25 28.4
0039E024 2019-02-26 14:52:32 21.4 25 28.6
0039E024 2019-02-26 14:20:46 21.3 25 28.8
0039E024 2019-02-26 13:49:01 21.3 25 29
0039E024 2019-02-26 13:17:15 21.3 25 29.2
0039E024 2019-02-26 12:45:32 21.3 25 29.2
0039E024 2019-02-26 12:13:47 21.2 25 29.2
0039E024 2019-02-26 11:42:04 21.1 25 29.3
0039E024 2019-02-26 11:10:18 21.1 25 29.5
0039E024 2019-02-26 10:38:33 21 25 29.5
0039E024 2019-02-26 10:06:47 20.9 24 29.5
0039E024 2019-02-26 09:35:01 20.8 24 29.7
0039E024 2019-02-26 09:03:16 20.8 23 29.8
0039E024 2019-02-26 08:31:30 20.8 23 29.8
0039E024 2019-02-26 07:59:44 20.7 23 29.8
0039E024 2019-02-26 07:27:59 20.8 23 29.8
0039E024 2019-02-26 06:56:13 20.8 23 29.8
0039E024 2019-02-26 06:24:27 20.8 23 29.8
0039E024 2019-02-26 05:52:41 20.8 22 29.8
0039E024 2019-02-26 05:20:56 20.8 22 29.8
0039E024 2019-02-26 04:49:10 20.8 22 29.8
0039E024 2019-02-26 04:16:54 20.8 22 30
0039E024 2019-02-26 03:45:08 20.8 22 29.7
0039E024 2019-02-26 03:13:22 20.8 22 29.5
0039E024 2019-02-26 02:41:36 20.9 22 29.4
0039E024 2019-02-26 02:09:49 20.9 22 29.2
0039E024 2019-02-26 01:38:02 20.9 21 29
0039E024 2019-02-26 01:06:16 20.9 21 28.8
0039E024 2019-02-26 00:34:29 21 21 28.6
0039E024 2019-02-26 00:02:43 21 21 28.4
0039E024 2019-02-25 23:30:58 21 21 28.2
0039E024 2019-02-25 22:59:12 21.1 21 28
0039E024 2019-02-25 22:27:25 21.1 21 27.7
0039E024 2019-02-25 21:55:38 21.1 21 27.5
0039E024 2019-02-25 21:23:52 21.2 21 27.2
0039E024 2019-02-25 20:52:06 21.2 21 26.9
0039E024 2019-02-25 20:20:20 21.3 21 26.6
0039E024 2019-02-25 19:48:33 21.3 21 26.3
0039E024 2019-02-25 19:16:47 21.4 21 25.9
0039E024 2019-02-25 18:45:00 21.4 21 25.5
0039E024 2019-02-25 18:13:14 21.4 21 25.2
0039E024 2019-02-25 17:41:26 21.4 21 24.6
0039E024 2019-02-25 17:09:39 21.4 21 24.1
0039E024 2019-02-25 16:37:52 21.4 22 23.5
0039E024 2019-02-25 16:06:04 21.4 22 22.7
0039E024 2019-02-25 15:34:17 21.4 22 21.9
0039E024 2019-02-25 15:02:33 21.3 23 21.8
0039E024 2019-02-25 14:30:45 21.3 22 21.8
0039E024 2019-02-25 13:58:58 21.2 22 22
0039E024 2019-02-25 13:27:11 21.1 22 22.1
0039E024 2019-02-25 12:55:25 21 22 22.2
0039E024 2019-02-25 12:23:42 20.9 22 22.1
0039E024 2019-02-25 11:51:53 20.9 23 22.2
0039E024 2019-02-25 11:20:06 20.8 23 22.2
0039E024 2019-02-25 10:48:20 20.8 23 22.3
0039E024 2019-02-25 10:16:33 20.6 22 22.3
0039E024 2019-02-25 09:44:47 20.5 22 22.2
0039E024 2019-02-25 09:13:01 20.5 22 22.1
0039E024 2019-02-25 08:41:13 20.5 22 22.3
0039E024 2019-02-25 08:09:25 20.5 22 22.2
0039E024 2019-02-25 07:37:39 20.5 22 22.3
0039E024 2019-02-25 07:05:53 20.5 22 22.4
0039E024 2019-02-25 06:34:07 20.5 22 22.3
0039E024 2019-02-25 06:02:22 20.5 22 22.3
0039E024 2019-02-25 05:30:34 20.5 22 22.4
0039E024 2019-02-25 04:58:48 20.5 22 22.1
0039E024 2019-02-25 04:27:02 20.5 22 22.2
0039E024 2019-02-25 03:55:15 20.5 22 22.2
0039E024 2019-02-25 03:23:30 20.5 22 22.3
0039E024 2019-02-25 02:51:43 20.5 22 22.3
0039E024 2019-02-25 02:19:57 20.8 22 22.2
0039E024 2019-02-25 02:18:42 20.5 22 22.2
0039E024 2019-02-25 01:46:56 20.5 22 22.3
0039E024 2019-02-25 01:15:12 20.5 22 22.1
0039E024 2019-02-25 00:43:23 20.5 23 22.1
0039E024 2019-02-25 00:11:37 20.5 23 21.9
0039E024 2019-02-24 23:39:50 20.5 24 22
0039E024 2019-02-24 23:08:04 20.6 24 22
0039E024 2019-02-24 22:36:16 20.6 24 21.8
0039E024 2019-02-24 22:04:31 20.6 24 21.8
0039E024 2019-02-24 21:32:43 20.6 24 21.8
0039E024 2019-02-24 21:00:56 20.6 24 22
0039E024 2019-02-24 20:29:09 20.6 24 22.1
0039E024 2019-02-24 19:57:24 20.6 24 21.9
0039E024 2019-02-24 19:25:37 20.7 24 22
0039E024 2019-02-24 18:53:51 20.7 24 22
0039E024 2019-02-24 18:22:05 20.7 24 21.7
0039E024 2019-02-24 17:50:19 20.7 24 21.8
0039E024 2019-02-24 17:18:32 20.7 24 21.7
0039E024 2019-02-24 16:46:46 20.7 24 21.5
0039E024 2019-02-24 16:14:59 20.6 23 21.6
0039E024 2019-02-24 15:43:12 20.7 23 21.6
0039E024 2019-02-24 15:11:24 20.6 23 21.7
0039E024 2019-02-24 14:39:37 20.6 23 21.6
0039E024 2019-02-24 14:07:52 20.6 23 21.7
0039E024 2019-02-24 13:36:07 20.6 23 21.7
0039E024 2019-02-24 13:04:20 20.6 23 21.6
0039E024 2019-02-24 12:32:33 20.6 23 21.5
0039E024 2019-02-24 12:00:46 20.6 22 21.5
0039E024 2019-02-24 11:28:59 20.6 22 22.4
0039E024 2019-02-24 10:57:11 20.6 22 22.4
0039E024 2019-02-24 10:25:24 20.6 22 22.5
0039E024 2019-02-24 09:53:36 20.6 22 22.3
0039E024 2019-02-24 09:21:49 20.6 22 22.5
0039E024 2019-02-24 08:50:02 20.6 22 22.5
0039E024 2019-02-24 08:18:15 20.6 22 22.4
0039E024 2019-02-24 07:46:28 20.7 22 22.3
0039E024 2019-02-24 07:14:41 20.7 22 22.1
0039E024 2019-02-24 06:42:54 20.7 22 22.2
0039E024 2019-02-24 06:11:09 20.7 22 22.1
0039E024 2019-02-24 05:39:22 20.7 22 22.1
0039E024 2019-02-24 05:07:35 20.7 22 22.2
0039E024 2019-02-24 04:35:48 20.7 22 22.1
0039E024 2019-02-24 04:04:03 20.7 22 22.1
0039E024 2019-02-24 03:32:18 20.8 22 22.1
0039E024 2019-02-24 03:00:32 20.8 22 22.1
0039E024 2019-02-24 02:28:45 20.8 22 22.1
0039E024 2019-02-24 01:57:00 20.8 22 22.1
0039E024 2019-02-24 01:25:11 20.8 22 22.1
0039E024 2019-02-24 00:53:24 20.8 21 22.1
0039E024 2019-02-24 00:21:39 20.8 21 22.1
0039E024 2019-02-23 23:49:19 20.9 21 23.1
0039E024 2019-02-23 23:17:32 20.9 21 23.1
0039E024 2019-02-23 22:45:46 20.9 21 22.3
0039E024 2019-02-23 22:13:58 20.9 21 22.4
0039E024 2019-02-23 21:42:11 21 21 22.4
0039E024 2019-02-23 21:10:23 21 21 22.4
0039E024 2019-02-23 20:38:36 21 20 22.5
0039E024 2019-02-23 20:06:49 21.1 20 22.4
0039E024 2019-02-23 19:35:02 21.1 20 22.4
0039E024 2019-02-23 19:03:16 21.1 20 22.4
0039E024 2019-02-23 18:31:29 21.1 19 22.6
0039E024 2019-02-23 17:59:44 21.2 19 22.7
0039E024 2019-02-23 17:27:56 21.2 19 22.7
0039E024 2019-02-23 16:56:09 21.1 18 22.7
0039E024 2019-02-23 16:24:22 21.1 18 22.8
0039E024 2019-02-23 15:52:34 21 18 22.9
0039E024 2019-02-23 15:20:48 20.9 18 23
0039E024 2019-02-23 14:49:00 20.8 18 22.9
0039E024 2019-02-23 14:17:14 20.8 17 22.9
0039E024 2019-02-23 13:45:25 20.8 17 23
0039E024 2019-02-23 13:13:39 20.8 17 23.1
0039E024 2019-02-23 12:41:52 20.8 17 23.1
0039E024 2019-02-23 12:10:03 20.7 16 23.1
0039E024 2019-02-23 11:38:16 20.7 16 23.1
0039E024 2019-02-23 11:06:29 20.7 16 22.3
0039E024 2019-02-23 10:34:41 20.7 16 22.3
0039E024 2019-02-23 10:02:53 20.7 15 22.3
0039E024 2019-02-23 09:31:06 20.7 15 22.2
0039E024 2019-02-23 08:59:16 20.7 15 22.3
0039E024 2019-02-23 08:27:28 20.7 15 22.2
0039E024 2019-02-23 07:55:40 20.7 15 22.1
0039E024 2019-02-23 07:23:52 20.7 14 22.1
0039E024 2019-02-23 06:52:04 20.7 14 22.1
0039E024 2019-02-23 06:20:18 20.7 14 22
0039E024 2019-02-23 05:48:30 20.7 13 22
0039E024 2019-02-23 05:16:44 20.7 13 21.9
0039E024 2019-02-23 04:44:55 20.7 13 22
0039E024 2019-02-23 04:13:07 20.7 12 22
0039E024 2019-02-23 03:41:20 20.7 12 21.9
0039E024 2019-02-23 03:09:33 20.7 12 22
0039E024 2019-02-23 02:37:44 20.7 12 22
0039E024 2019-02-23 02:05:56 20.8 11 22
0039E024 2019-02-23 01:34:07 20.7 11 22
0039E024 2019-02-23 01:02:18 20.8 11 22.1
0039E024 2019-02-23 00:30:29 20.8 11 22.1
0039E024 2019-02-22 23:58:40 20.8 11 21.9
0039E024 2019-02-22 23:26:51 20.8 10 21.9
0039E024 2019-02-22 22:55:04 20.9 10 22
0039E024 2019-02-22 22:23:17 20.9 10 22.1
0039E024 2019-02-22 21:51:30 20.9 10 22
0039E024 2019-02-22 21:19:10 21 10 22.1
0039E024 2019-02-22 21:08:28 20.9 10 22.1
0039E024 2019-02-22 20:57:46 21 10 22.2
0039E024 2019-02-22 20:47:04 21 10 22.4
0039E024 2019-02-22 20:36:23 21 10 22.5
0039E024 2019-02-22 20:25:40 21 10 22.5
0039E024 2019-02-22 20:14:59 21 10 22.6
0039E024 2019-02-22 20:04:17 21 10 22.6
0039E024 2019-02-22 19:53:35 21 9 22.6
0039E024 2019-02-22 19:42:54 21 9 22.6
0039E024 2019-02-22 19:32:12 21 9 22.5
0039E024 2019-02-22 19:21:31 21 9 22.6
0039E024 2019-02-22 19:10:48 21.1 9 22.5
0039E024 2019-02-22 19:00:07 21.1 9 22.5
0039E024 2019-02-22 18:49:26 21 9 22.5
0039E024 2019-02-22 18:38:44 21.1 9 22.5
0039E024 2019-02-22 18:28:02 21.1 9 22.5
0039E024 2019-02-22 18:17:22 21.1 9 22.6
0039E024 2019-02-22 18:06:40 21.1 9 22.4
0039E024 2019-02-22 17:55:58 21.1 10 22.4
0039E024 2019-02-22 17:45:16 21.1 10 22.2
0039E024 2019-02-22 17:34:35 21.1 10 22.3
0039E024 2019-02-22 17:23:54 21.1 10 22.2
0039E024 2019-02-22 17:13:12 21.1 10 22.1
0039E024 2019-02-22 17:02:31 21.1 10 22.2
0039E024 2019-02-22 16:51:50 21.1 10 22.1
0039E024 2019-02-22 16:41:09 21.1 10 22.1
0039E024 2019-02-22 16:30:27 21.1 10 21.9
0039E024 2019-02-22 16:19:46 21.1 10 21.8
0039E024 2019-02-22 16:09:04 21 10 21.5
0039E024 2019-02-22 15:58:23 21 10 21.5
0039E024 2019-02-22 15:47:43 21 10 21.4
0039E024 2019-02-22 15:37:02 21 10 21.5
0039E024 2019-02-22 15:26:22 20.9 10 21.7
0039E024 2019-02-22 15:15:39 20.9 10 21.7
0039E024 2019-02-22 15:04:59 20.8 10 21.6
0039E024 2019-02-22 14:54:17 20.8 10 21.6
0039E024 2019-02-22 14:43:36 20.8 10 21.7
0039E024 2019-02-22 14:32:55 20.8 10 21.6
0039E024 2019-02-22 14:22:13 20.8 10 21.6
0039E024 2019-02-22 14:11:32 20.7 10 21.8
0039E024 2019-02-22 14:00:51 20.7 10 21.9
0039E024 2019-02-22 13:50:09 20.7 10 21.9
0039E024 2019-02-22 13:39:27 20.6 11 22.1
0039E024 2019-02-22 13:28:45 20.7 11 23
0039E024 2019-02-22 13:18:04 20.7 11 23.1
0039E024 2019-02-22 13:07:22 20.7 11 23
0039E024 2019-02-22 12:56:40 20.6 11 22.9
0039E024 2019-02-22 12:45:57 20.6 11 23
0039E024 2019-02-22 12:35:16 20.6 11 22.8
0039E024 2019-02-22 12:24:01 20.6 11 22.9
0039E024 2019-02-22 11:52:13 20.5 11 23
0039E024 2019-02-22 11:20:27 20.5 11 23
0039E024 2019-02-22 10:48:37 20.4 11 23
0039E024 2019-02-22 10:16:50 20.3 11 23.1
0039E024 2019-02-22 09:45:01 20.3 11 23.1
0039E024 2019-02-22 09:13:15 20.3 11 23.1
0039E024 2019-02-22 08:41:28 20.3 11 23.1
0039E024 2019-02-22 08:09:41 20.3 12 23
0039E024 2019-02-22 07:37:55 20.4 12 22.9
0039E024 2019-02-22 07:06:07 20.4 12 22.8
0039E024 2019-02-22 06:34:20 20.4 12 22.6
0039E024 2019-02-22 06:02:36 20.4 12 22.7
0039E024 2019-02-22 05:30:47 20.4 12 22.7
0039E024 2019-02-22 04:59:00 20.4 12 22.5
0039E024 2019-02-22 04:27:13 20.4 12 22.3
0039E024 2019-02-22 03:55:27 20.5 12 22.1
0039E024 2019-02-22 03:23:40 20.4 12 22
0039E024 2019-02-22 02:51:52 20.5 12 22
0039E024 2019-02-22 02:20:06 20.5 12 22.8
0039E024 2019-02-22 01:48:19 20.5 12 23.5
0039E024 2019-02-22 01:16:32 20.5 12 24.2
0039E024 2019-02-22 00:44:45 20.5 12 24.7
0039E024 2019-02-22 00:12:58 20.6 12 24.7
0039E024 2019-02-21 23:41:11 20.6 11 24.6
0039E024 2019-02-21 23:09:25 20.6 11 24.6
0039E024 2019-02-21 22:37:38 20.6 11 24.6
0039E024 2019-02-21 22:05:52 20.7 11 24.5
0039E024 2019-02-21 21:34:05 20.7 11 24.5
0039E024 2019-02-21 21:02:17 20.8 11 24.5
0039E024 2019-02-21 20:30:31 20.8 11 24.4
0039E024 2019-02-21 19:58:45 20.8 11 24.4
0039E024 2019-02-21 19:27:03 20.9 11 24.4
0039E024 2019-02-21 18:55:13 20.9 11 24.3
0039E024 2019-02-21 18:23:26 21 11 24.3
0039E024 2019-02-21 17:51:38 21 12 24.3
0039E024 2019-02-21 17:19:52 21.1 12 24.3
0039E024 2019-02-21 16:48:04 21 12 24.2
0039E024 2019-02-21 16:16:17 20.8 11 24.3
0039E024 2019-02-21 15:44:29 20.6 11 24.3
0039E024 2019-02-21 15:12:42 20.6 11 24.4
0039E024 2019-02-21 14:40:52 20.5 12 24.5
0039E024 2019-02-21 14:09:04 20.5 12 24.5
0039E024 2019-02-21 13:37:16 20.5 12 24
0039E024 2019-02-21 13:05:30 20.4 12 23.3
0039E024 2019-02-21 12:33:43 20.4 13 22.6
0039E024 2019-02-21 12:01:56 20.4 13 21.5
0039E024 2019-02-21 11:30:08 20.4 13 20.2
0039E024 2019-02-21 10:58:21 20.4 13 20.3
0039E024 2019-02-21 10:26:33 20.6 13 20.3
0039E024 2019-02-21 10:25:19 20.4 13 20.4
0039E024 2019-02-21 09:53:31 20.4 14 20.4
0039E024 2019-02-21 09:21:43 20.4 14 20.4
0039E024 2019-02-21 08:49:56 20.4 14 20.4
0039E024 2019-02-21 08:18:10 20.4 15 20.2
0039E024 2019-02-21 07:46:21 20.4 15 20.3
0039E024 2019-02-21 07:14:36 20.4 16 20
0039E024 2019-02-21 06:42:47 20.4 16 19.9
0039E024 2019-02-21 06:11:00 20.4 16 20
0039E024 2019-02-21 05:39:13 20.4 16 20.2
0039E024 2019-02-21 05:07:26 20.5 16 20.1
0039E024 2019-02-21 04:35:39 20.5 16 20
0039E024 2019-02-21 04:03:52 20.5 16 20.1
0039E024 2019-02-21 03:32:04 20.5 16 19.9
0039E024 2019-02-21 03:00:18 20.5 16 19.7
0039E024 2019-02-21 02:28:32 20.5 17 21
0039E024 2019-02-21 01:56:47 20.5 17 20.8
0039E024 2019-02-21 01:25:01 20.5 17 21.9
0039E024 2019-02-21 00:53:16 20.5 17 22.8
0039E024 2019-02-21 00:21:28 20.5 17 22.7
0039E024 2019-02-20 23:49:41 20.5 17 23.5
0039E024 2019-02-20 23:17:55 20.5 17 23.4
0039E024 2019-02-20 22:46:10 20.5 17 24.1
0039E024 2019-02-20 22:14:24 20.6 17 24.1
0039E024 2019-02-20 21:42:37 20.5 18 24.1
0039E024 2019-02-20 21:10:49 20.6 18 24.1
0039E024 2019-02-20 20:39:03 20.6 18 24.1
0039E024 2019-02-20 20:07:16 20.6 18 24.1
0039E024 2019-02-20 19:35:30 20.6 18 24.2
0039E024 2019-02-20 19:03:43 20.5 18 24.2
0039E024 2019-02-20 18:31:59 20.6 18 24.1
0039E024 2019-02-20 18:00:10 20.6 18 24.1
0039E024 2019-02-20 17:28:23 20.6 19 24
0039E024 2019-02-20 16:56:38 20.6 19 24.1
0039E024 2019-02-20 16:24:51 20.6 20 24.1
0039E024 2019-02-20 15:53:03 20.6 20 24.2
0039E024 2019-02-20 15:21:13 20.5 20 24.1
0039E024 2019-02-20 14:17:39 20.6 22 24.1